Time,TemperatureF,DewpointF,PressureIn,WindDirection,WindDirectionDegrees,WindSpeedMPH,WindSpeedGustMPH,Humidity,HourlyPrecipIn,Conditions,Clouds,dailyrainin,SoftwareType,DateUTC
2012-10-27 00:00:00,57.2,42.1,30.24,East,90,4.0,5.0,57,0.00,,,0.00,meteohub,2012-10-27 04:00:00,
2012-10-27 00:01:00,57.2,42.1,30.24,East,90,4.0,5.0,57,0.00,,,0.00,meteohub,2012-10-27 04:01:00,
2012-10-27 00:03:00,57.2,42.1,30.24,East,90,4.0,5.0,57,0.00,,,0.00,meteohub,2012-10-27 04:03:00,
2012-10-27 00:05:00,57.2,42.1,30.24,East,90,4.0,5.0,57,0.00,,,0.00,meteohub,2012-10-27 04:05:00,
2012-10-27 00:06:00,57.2,42.1,30.24,East,90,4.0,5.0,57,0.00,,,0.00,meteohub,2012-10-27 04:06:00,
2012-10-27 00:09:00,57.0,42.4,30.24,East,90,3.0,5.0,58,0.00,,,0.00,meteohub,2012-10-27 04:09:00,
2012-10-27 00:10:00,57.0,42.4,30.24,East,90,3.0,4.0,58,0.00,,,0.00,meteohub,2012-10-27 04:10:00,
2012-10-27 00:11:00,57.0,42.4,30.24,East,90,3.0,4.0,58,0.00,,,0.00,meteohub,2012-10-27 04:11:00,
2012-10-27 00:12:00,57.0,42.4,30.24,East,90,3.0,4.0,58,0.00,,,0.00,meteohub,2012-10-27 04:12:00,
2012-10-27 00:15:00,57.0,42.4,30.24,SE,135,4.0,4.0,58,0.00,,,0.00,meteohub,2012-10-27 04:15:00,
2012-10-27 00:16:00,57.0,41.9,30.24,East,90,4.0,4.0,57,0.00,,,0.00,meteohub,2012-10-27 04:16:00,
2012-10-27 00:17:00,57.0,41.9,30.24,East,90,3.0,4.0,57,0.00,,,0.00,meteohub,2012-10-27 04:17:00,
2012-10-27 00:21:00,57.2,41.7,30.24,SE,135,4.0,4.0,56,0.00,,,0.00,meteohub,2012-10-27 04:21:00,
2012-10-27 00:22:00,57.2,41.7,30.24,East,90,4.0,4.0,56,0.00,,,0.00,meteohub,2012-10-27 04:22:00,
2012-10-27 00:26:00,57.2,41.2,30.23,East,90,4.0,4.0,55,0.00,,,0.00,meteohub,2012-10-27 04:26:00,
2012-10-27 00:27:00,57.2,41.2,30.23,East,90,4.0,4.0,55,0.00,,,0.00,meteohub,2012-10-27 04:27:00,
2012-10-27 00:28:00,57.2,41.2,30.23,East,90,5.0,5.0,55,0.00,,,0.00,meteohub,2012-10-27 04:28:00,
2012-10-27 00:31:00,57.2,40.6,30.23,East,90,5.0,5.0,54,0.00,,,0.00,meteohub,2012-10-27 04:31:00,
2012-10-27 00:32:00,57.2,40.6,30.23,SE,135,4.0,5.0,54,0.00,,,0.00,meteohub,2012-10-27 04:32:00,
2012-10-27 00:33:00,57.4,40.8,30.22,SE,135,4.0,5.0,54,0.00,,,0.00,meteohub,2012-10-27 04:33:00,
2012-10-27 00:37:00,57.6,40.6,30.22,SE,135,6.0,6.0,53,0.00,,,0.00,meteohub,2012-10-27 04:37:00,
2012-10-27 00:38:00,57.6,40.6,30.22,SE,135,5.0,5.0,53,0.00,,,0.00,meteohub,2012-10-27 04:38:00,
2012-10-27 00:39:00,57.6,40.6,30.22,SE,135,5.0,5.0,53,0.00,,,0.00,meteohub,2012-10-27 04:39:00,
2012-10-27 00:42:00,57.6,40.1,30.22,SE,135,6.0,8.0,52,0.00,,,0.00,meteohub,2012-10-27 04:42:00,
2012-10-27 00:43:00,57.6,40.1,30.22,SE,135,6.0,8.0,52,0.00,,,0.00,meteohub,2012-10-27 04:43:00,
2012-10-27 00:44:00,57.6,40.1,30.22,East,90,5.0,8.0,52,0.00,,,0.00,meteohub,2012-10-27 04:44:00,
2012-10-27 00:48:00,57.6,40.1,30.22,East,90,4.0,8.0,52,0.00,,,0.00,meteohub,2012-10-27 04:48:00,
2012-10-27 00:49:00,57.6,40.1,30.22,SE,135,4.0,8.0,52,0.00,,,0.00,meteohub,2012-10-27 04:49:00,
2012-10-27 00:53:00,57.6,40.1,30.22,East,90,4.0,8.0,52,0.00,,,0.00,meteohub,2012-10-27 04:53:00,
2012-10-27 00:54:00,57.6,40.1,30.22,East,90,4.0,8.0,52,0.00,,,0.00,meteohub,2012-10-27 04:54:00,
2012-10-27 00:59:00,57.4,40.5,30.21,East,90,4.0,8.0,53,0.00,,,0.00,meteohub,2012-10-27 04:59:00,
2012-10-27 01:00:00,57.4,40.5,30.21,East,90,4.0,8.0,53,0.00,,,0.00,meteohub,2012-10-27 05:00:00,
2012-10-27 01:04:00,57.4,40.5,30.21,East,90,4.0,5.0,53,0.00,,,0.00,meteohub,2012-10-27 05:04:00,
2012-10-27 01:05:00,57.4,40.5,30.21,East,90,4.0,5.0,53,0.00,,,0.00,meteohub,2012-10-27 05:05:00,
2012-10-27 01:06:00,57.4,40.5,30.21,East,90,4.0,5.0,53,0.00,,,0.00,meteohub,2012-10-27 05:06:00,
2012-10-27 01:10:00,57.4,40.5,30.21,SE,135,7.0,7.0,53,0.00,,,0.00,meteohub,2012-10-27 05:10:00,
2012-10-27 01:11:00,57.4,40.5,30.21,SE,135,7.0,7.0,53,0.00,,,0.00,meteohub,2012-10-27 05:11:00,
2012-10-27 01:12:00,57.4,40.5,30.21,SE,135,4.0,6.0,53,0.00,,,0.00,meteohub,2012-10-27 05:12:00,
2012-10-27 01:15:00,57.4,40.5,30.21,SE,135,5.0,7.0,53,0.00,,,0.00,meteohub,2012-10-27 05:15:00,
2012-10-27 01:16:00,57.4,40.8,30.21,SE,135,6.0,7.0,54,0.00,,,0.00,meteohub,2012-10-27 05:16:00,
2012-10-27 01:17:00,57.4,40.8,30.21,SE,135,4.0,7.0,54,0.00,,,0.00,meteohub,2012-10-27 05:17:00,
2012-10-27 01:21:00,57.4,40.5,30.21,SE,135,7.0,7.0,53,0.00,,,0.00,meteohub,2012-10-27 05:21:00,
2012-10-27 01:22:00,57.4,40.5,30.21,East,90,4.0,7.0,53,0.00,,,0.00,meteohub,2012-10-27 05:22:00,
2012-10-27 01:23:00,57.4,40.5,30.21,East,90,4.0,7.0,53,0.00,,,0.00,meteohub,2012-10-27 05:23:00,
2012-10-27 01:27:00,57.4,40.5,30.21,SE,135,4.0,8.0,53,0.00,,,0.00,meteohub,2012-10-27 05:27:00,
2012-10-27 01:28:00,57.6,40.6,30.21,South,180,4.0,8.0,53,0.00,,,0.00,meteohub,2012-10-27 05:28:00,
2012-10-27 01:32:00,57.6,40.6,30.22,South,180,4.0,8.0,53,0.00,,,0.00,meteohub,2012-10-27 05:32:00,
2012-10-27 01:33:00,57.7,40.6,30.22,East,90,4.0,8.0,53,0.00,,,0.00,meteohub,2012-10-27 05:33:00,
2012-10-27 01:34:00,57.7,40.3,30.22,SE,135,4.0,8.0,52,0.00,,,0.00,meteohub,2012-10-27 05:34:00,
2012-10-27 01:37:00,57.9,40.5,30.21,NE,45,4.0,7.0,52,0.00,,,0.00,meteohub,2012-10-27 05:37:00,
2012-10-27 01:38:00,57.9,40.5,30.21,East,90,6.0,7.0,52,0.00,,,0.00,meteohub,2012-10-27 05:38:00,
2012-10-27 01:39:00,57.9,40.5,30.21,East,90,3.0,7.0,52,0.00,,,0.00,meteohub,2012-10-27 05:39:00,
2012-10-27 01:43:00,57.9,40.5,30.21,East,90,3.0,6.0,52,0.00,,,0.00,meteohub,2012-10-27 05:43:00,
2012-10-27 01:44:00,57.9,40.5,30.21,South,180,4.0,6.0,52,0.00,,,0.00,meteohub,2012-10-27 05:44:00,
2012-10-27 01:46:00,57.9,40.5,30.21,SE,135,0.0,6.0,52,0.00,,,0.00,meteohub,2012-10-27 05:46:00,
2012-10-27 01:48:00,58.1,40.6,30.21,SE,135,0.0,6.0,52,0.00,,,0.00,meteohub,2012-10-27 05:48:00,
2012-10-27 01:49:00,58.1,40.6,30.21,East,90,0.0,6.0,52,0.00,,,0.00,meteohub,2012-10-27 05:49:00,
2012-10-27 01:50:00,58.1,40.6,30.21,SE,135,0.0,6.0,52,0.00,,,0.00,meteohub,2012-10-27 05:50:00,
2012-10-27 01:51:00,57.9,40.5,30.21,SE,135,3.0,6.0,52,0.00,,,0.00,meteohub,2012-10-27 05:51:00,
2012-10-27 01:53:00,58.1,40.6,30.21,WSW,248,8.0,8.0,52,0.00,,,0.00,meteohub,2012-10-27 05:53:00,
2012-10-27 01:54:00,58.1,41.0,30.21,SE,135,4.0,6.0,53,0.00,,,0.00,meteohub,2012-10-27 05:54:00,
2012-10-27 01:55:00,58.1,40.6,30.21,East,90,3.0,6.0,52,0.00,,,0.00,meteohub,2012-10-27 05:55:00,
2012-10-27 01:57:00,58.1,40.6,30.21,South,180,4.0,4.0,52,0.00,,,0.00,meteohub,2012-10-27 05:57:00,
2012-10-27 01:58:00,58.1,40.6,30.21,SE,135,4.0,4.0,52,0.00,,,0.00,meteohub,2012-10-27 05:58:00,
2012-10-27 02:00:00,58.1,40.6,30.21,SE,135,4.0,4.0,52,0.00,,,0.00,meteohub,2012-10-27 06:00:00,
2012-10-27 02:02:00,58.1,40.6,30.21,SE,135,4.0,8.0,52,0.00,,,0.00,meteohub,2012-10-27 06:02:00,
2012-10-27 02:03:00,58.1,40.6,30.21,SE,135,4.0,8.0,52,0.00,,,0.00,meteohub,2012-10-27 06:03:00,
2012-10-27 02:05:00,58.1,40.6,30.21,SE,135,4.0,8.0,52,0.00,,,0.00,meteohub,2012-10-27 06:05:00,
2012-10-27 02:06:00,58.1,40.6,30.21,SE,135,4.0,8.0,52,0.00,,,0.00,meteohub,2012-10-27 06:06:00,
2012-10-27 02:08:00,58.1,41.0,30.22,SE,135,6.0,8.0,53,0.00,,,0.00,meteohub,2012-10-27 06:08:00,
2012-10-27 02:09:00,58.1,41.0,30.21,East,90,7.0,8.0,53,0.00,,,0.00,meteohub,2012-10-27 06:09:00,
2012-10-27 02:10:00,58.1,41.0,30.21,East,90,6.0,6.0,53,0.00,,,0.00,meteohub,2012-10-27 06:10:00,
2012-10-27 02:11:00,58.1,41.0,30.22,South,180,5.0,5.0,53,0.00,,,0.00,meteohub,2012-10-27 06:11:00,
2012-10-27 02:14:00,58.3,41.2,30.21,SE,135,5.0,5.0,53,0.00,,,0.00,meteohub,2012-10-27 06:14:00,
2012-10-27 02:16:00,58.3,41.7,30.21,East,90,0.0,7.0,54,0.00,,,0.00,meteohub,2012-10-27 06:16:00,
2012-10-27 02:19:00,58.1,41.5,30.21,East,90,0.0,7.0,54,0.00,,,0.00,meteohub,2012-10-27 06:19:00,
2012-10-27 02:20:00,58.1,41.5,30.21,SE,135,0.0,7.0,54,0.00,,,0.00,meteohub,2012-10-27 06:20:00,
2012-10-27 02:21:00,58.1,41.5,30.21,East,90,0.0,7.0,54,0.00,,,0.00,meteohub,2012-10-27 06:21:00,
2012-10-27 02:22:00,58.1,41.5,30.21,East,90,0.0,7.0,54,0.00,,,0.00,meteohub,2012-10-27 06:22:00,
2012-10-27 02:24:00,58.1,41.5,30.21,SE,135,4.0,7.0,54,0.00,,,0.00,meteohub,2012-10-27 06:24:00,
2012-10-27 02:25:00,58.1,41.5,30.21,SE,135,4.0,7.0,54,0.00,,,0.00,meteohub,2012-10-27 06:25:00,
2012-10-27 02:27:00,58.1,41.5,30.21,SE,135,4.0,6.0,54,0.00,,,0.00,meteohub,2012-10-27 06:27:00,
2012-10-27 02:29:00,58.1,41.5,30.22,SE,135,4.0,6.0,54,0.00,,,0.00,meteohub,2012-10-27 06:29:00,
2012-10-27 02:30:00,58.1,41.5,30.21,East,90,3.0,6.0,54,0.00,,,0.00,meteohub,2012-10-27 06:30:00,
2012-10-27 02:33:00,58.1,41.5,30.21,East,90,3.0,4.0,54,0.00,,,0.00,meteohub,2012-10-27 06:33:00,
2012-10-27 02:35:00,58.1,41.5,30.21,East,90,1.0,4.0,54,0.00,,,0.00,meteohub,2012-10-27 06:35:00,
2012-10-27 02:36:00,58.1,41.5,30.21,South,180,0.0,5.0,54,0.00,,,0.00,meteohub,2012-10-27 06:36:00,
2012-10-27 02:38:00,58.1,41.5,30.21,SE,135,1.0,5.0,54,0.00,,,0.00,meteohub,2012-10-27 06:38:00,
2012-10-27 02:39:00,58.1,41.5,30.21,SE,135,1.0,5.0,54,0.00,,,0.00,meteohub,2012-10-27 06:39:00,
2012-10-27 02:40:00,58.1,41.5,30.21,East,90,0.0,5.0,54,0.00,,,0.00,meteohub,2012-10-27 06:40:00,
2012-10-27 02:43:00,58.1,41.5,30.21,SE,135,2.0,5.0,54,0.00,,,0.00,meteohub,2012-10-27 06:43:00,
2012-10-27 02:44:00,58.1,41.5,30.20,East,90,4.0,5.0,54,0.00,,,0.00,meteohub,2012-10-27 06:44:00,
2012-10-27 02:45:00,58.1,41.5,30.21,East,90,5.0,5.0,54,0.00,,,0.00,meteohub,2012-10-27 06:45:00,
2012-10-27 02:48:00,58.3,41.7,30.20,East,90,4.0,6.0,54,0.00,,,0.00,meteohub,2012-10-27 06:48:00,
2012-10-27 02:49:00,58.3,41.7,30.20,SSE,158,6.0,6.0,54,0.00,,,0.00,meteohub,2012-10-27 06:49:00,
2012-10-27 02:50:00,58.3,41.7,30.20,East,90,4.0,6.0,54,0.00,,,0.00,meteohub,2012-10-27 06:50:00,
2012-10-27 02:53:00,58.3,41.7,30.20,SE,135,4.0,6.0,54,0.00,,,0.00,meteohub,2012-10-27 06:53:00,
2012-10-27 02:55:00,58.3,41.2,30.20,NE,45,7.0,7.0,53,0.00,,,0.00,meteohub,2012-10-27 06:55:00,
2012-10-27 03:00:00,58.5,41.4,30.21,SE,135,0.0,6.0,53,0.00,,,0.00,meteohub,2012-10-27 07:00:00,
2012-10-27 03:01:00,58.5,41.4,30.21,SE,135,0.0,8.0,53,0.00,,,0.00,meteohub,2012-10-27 07:01:00,
2012-10-27 03:05:00,58.5,41.4,30.21,SE,135,0.0,8.0,53,0.00,,,0.00,meteohub,2012-10-27 07:05:00,
2012-10-27 03:06:00,58.5,41.4,30.20,SE,135,0.0,8.0,53,0.00,,,0.00,meteohub,2012-10-27 07:06:00,
2012-10-27 03:10:00,58.5,40.8,30.20,SE,135,4.0,8.0,52,0.00,,,0.00,meteohub,2012-10-27 07:10:00,
2012-10-27 03:11:00,58.5,40.8,30.20,SE,135,4.0,8.0,52,0.00,,,0.00,meteohub,2012-10-27 07:11:00,
2012-10-27 03:12:00,58.5,40.8,30.20,East,90,4.0,8.0,52,0.00,,,0.00,meteohub,2012-10-27 07:12:00,
2012-10-27 03:13:00,58.5,40.8,30.20,East,90,0.0,8.0,52,0.00,,,0.00,meteohub,2012-10-27 07:13:00,
2012-10-27 03:16:00,58.5,40.8,30.20,East,90,0.0,7.0,52,0.00,,,0.00,meteohub,2012-10-27 07:16:00,
2012-10-27 03:17:00,58.5,40.8,30.20,East,90,0.0,7.0,52,0.00,,,0.00,meteohub,2012-10-27 07:17:00,
2012-10-27 03:19:00,58.5,40.8,30.20,East,90,3.0,7.0,52,0.00,,,0.00,meteohub,2012-10-27 07:19:00,
2012-10-27 03:21:00,58.5,40.8,30.20,SE,135,0.0,7.0,52,0.00,,,0.00,meteohub,2012-10-27 07:21:00,
2012-10-27 03:22:00,58.5,40.8,30.20,East,90,0.0,7.0,52,0.00,,,0.00,meteohub,2012-10-27 07:22:00,
2012-10-27 03:24:00,58.3,40.8,30.20,East,90,2.0,7.0,52,0.00,,,0.00,meteohub,2012-10-27 07:24:00,
2012-10-27 03:27:00,58.3,41.2,30.20,SE,135,0.0,4.0,53,0.00,,,0.00,meteohub,2012-10-27 07:27:00,
2012-10-27 03:28:00,58.3,41.2,30.20,SE,135,5.0,5.0,53,0.00,,,0.00,meteohub,2012-10-27 07:28:00,
2012-10-27 03:29:00,58.3,40.8,30.19,SE,135,4.0,4.0,52,0.00,,,0.00,meteohub,2012-10-27 07:29:00,
2012-10-27 03:32:00,58.5,41.4,30.19,East,90,0.0,5.0,53,0.00,,,0.00,meteohub,2012-10-27 07:32:00,
2012-10-27 03:33:00,58.5,41.4,30.19,East,90,0.0,5.0,53,0.00,,,0.00,meteohub,2012-10-27 07:33:00,
2012-10-27 03:34:00,58.5,41.4,30.19,East,90,0.0,5.0,53,0.00,,,0.00,meteohub,2012-10-27 07:34:00,
2012-10-27 03:37:00,58.5,41.4,30.19,SE,135,7.0,7.0,53,0.00,,,0.00,meteohub,2012-10-27 07:37:00,
2012-10-27 03:39:00,58.5,40.8,30.19,SE,135,0.0,5.0,52,0.00,,,0.00,meteohub,2012-10-27 07:39:00,
2012-10-27 03:40:00,58.5,40.8,30.19,SE,135,4.0,5.0,52,0.00,,,0.00,meteohub,2012-10-27 07:40:00,
2012-10-27 03:43:00,58.5,40.8,30.19,SE,135,4.0,7.0,52,0.00,,,0.00,meteohub,2012-10-27 07:43:00,
2012-10-27 03:45:00,58.5,41.4,30.19,SE,135,7.0,7.0,53,0.00,,,0.00,meteohub,2012-10-27 07:45:00,
2012-10-27 03:48:00,58.5,41.4,30.19,SE,135,3.0,7.0,53,0.00,,,0.00,meteohub,2012-10-27 07:48:00,
2012-10-27 03:50:00,58.5,41.4,30.19,East,90,4.0,7.0,53,0.00,,,0.00,meteohub,2012-10-27 07:50:00,
2012-10-27 03:51:00,58.3,41.2,30.19,East,90,5.0,7.0,53,0.00,,,0.00,meteohub,2012-10-27 07:51:00,
2012-10-27 03:53:00,58.3,41.2,30.19,SE,135,4.0,7.0,53,0.00,,,0.00,meteohub,2012-10-27 07:53:00,
2012-10-27 03:54:00,58.3,41.2,30.19,SE,135,4.0,7.0,53,0.00,,,0.00,meteohub,2012-10-27 07:54:00,
2012-10-27 03:57:00,58.3,41.7,30.19,East,90,4.0,7.0,54,0.00,,,0.00,meteohub,2012-10-27 07:57:00,
2012-10-27 03:59:00,58.3,41.7,30.19,East,90,4.0,7.0,54,0.00,,,0.00,meteohub,2012-10-27 07:59:00,
2012-10-27 04:02:00,58.3,41.7,30.19,East,90,4.0,6.0,54,0.00,,,0.00,meteohub,2012-10-27 08:02:00,
2012-10-27 04:03:00,58.3,41.7,30.18,East,90,4.0,6.0,54,0.00,,,0.00,meteohub,2012-10-27 08:03:00,
2012-10-27 04:04:00,58.3,41.7,30.18,East,90,4.0,6.0,54,0.00,,,0.00,meteohub,2012-10-27 08:04:00,
2012-10-27 04:08:00,58.1,41.5,30.18,SE,135,6.0,6.0,54,0.00,,,0.00,meteohub,2012-10-27 08:08:00,
2012-10-27 04:09:00,58.1,41.5,30.18,East,90,4.0,6.0,54,0.00,,,0.00,meteohub,2012-10-27 08:09:00,
2012-10-27 04:13:00,58.1,41.5,30.18,SE,135,4.0,6.0,54,0.00,,,0.00,meteohub,2012-10-27 08:13:00,
2012-10-27 04:14:00,58.1,41.5,30.18,East,90,5.0,6.0,54,0.00,,,0.00,meteohub,2012-10-27 08:14:00,
2012-10-27 04:18:00,58.1,41.5,30.18,SE,135,6.0,6.0,54,0.00,,,0.00,meteohub,2012-10-27 08:18:00,
2012-10-27 04:19:00,58.1,41.5,30.18,SE,135,6.0,6.0,54,0.00,,,0.00,meteohub,2012-10-27 08:19:00,
2012-10-27 04:20:00,58.1,41.5,30.18,East,90,0.0,6.0,54,0.00,,,0.00,meteohub,2012-10-27 08:20:00,
2012-10-27 04:23:00,58.1,41.5,30.17,East,90,0.0,7.0,54,0.00,,,0.00,meteohub,2012-10-27 08:23:00,
2012-10-27 04:24:00,58.1,41.5,30.17,SE,135,0.0,7.0,54,0.00,,,0.00,meteohub,2012-10-27 08:24:00,
2012-10-27 04:25:00,58.1,42.1,30.17,SE,135,0.0,7.0,55,0.00,,,0.00,meteohub,2012-10-27 08:25:00,
2012-10-27 04:29:00,58.1,42.1,30.18,SE,135,0.0,7.0,55,0.00,,,0.00,meteohub,2012-10-27 08:29:00,
2012-10-27 04:30:00,57.9,41.9,30.17,SE,135,4.0,7.0,55,0.00,,,0.00,meteohub,2012-10-27 08:30:00,
2012-10-27 04:31:00,57.9,41.9,30.17,South,180,0.0,7.0,55,0.00,,,0.00,meteohub,2012-10-27 08:31:00,
2012-10-27 04:35:00,58.1,41.5,30.17,East,90,0.0,7.0,54,0.00,,,0.00,meteohub,2012-10-27 08:35:00,
2012-10-27 04:36:00,58.1,41.5,30.17,East,90,0.0,4.0,54,0.00,,,0.00,meteohub,2012-10-27 08:36:00,
2012-10-27 04:40:00,58.1,41.5,30.18,East,90,4.0,4.0,54,0.00,,,0.00,meteohub,2012-10-27 08:40:00,
2012-10-27 04:41:00,58.1,41.5,30.17,SE,135,4.0,5.0,54,0.00,,,0.00,meteohub,2012-10-27 08:41:00,
2012-10-27 04:42:00,57.9,41.4,30.17,East,90,4.0,5.0,54,0.00,,,0.00,meteohub,2012-10-27 08:42:00,
2012-10-27 04:46:00,57.9,41.4,30.17,SE,135,6.0,6.0,54,0.00,,,0.00,meteohub,2012-10-27 08:46:00,
2012-10-27 04:47:00,57.9,41.4,30.17,East,90,5.0,5.0,54,0.00,,,0.00,meteohub,2012-10-27 08:47:00,
2012-10-27 04:52:00,57.9,41.9,30.17,SE,135,6.0,6.0,55,0.00,,,0.00,meteohub,2012-10-27 08:52:00,
2012-10-27 04:53:00,57.7,41.7,30.17,SE,135,4.0,6.0,55,0.00,,,0.00,meteohub,2012-10-27 08:53:00,
2012-10-27 04:55:00,57.7,41.7,30.17,East,90,4.0,6.0,55,0.00,,,0.00,meteohub,2012-10-27 08:55:00,
2012-10-27 04:57:00,57.7,42.1,30.17,SE,135,0.0,6.0,56,0.00,,,0.00,meteohub,2012-10-27 08:57:00,
2012-10-27 04:58:00,57.7,42.1,30.17,East,90,0.0,6.0,56,0.00,,,0.00,meteohub,2012-10-27 08:58:00,
2012-10-27 04:59:00,57.6,41.9,30.17,East,90,0.0,6.0,56,0.00,,,0.00,meteohub,2012-10-27 08:59:00,
2012-10-27 05:00:00,57.6,41.9,30.17,East,90,0.0,6.0,56,0.00,,,0.00,meteohub,2012-10-27 09:00:00,
2012-10-27 05:02:00,57.6,41.9,30.17,East,90,0.0,6.0,56,0.00,,,0.00,meteohub,2012-10-27 09:02:00,
2012-10-27 05:03:00,57.6,41.9,30.17,East,90,0.0,6.0,56,0.00,,,0.00,meteohub,2012-10-27 09:03:00,
2012-10-27 05:04:00,57.6,41.9,30.17,East,90,0.0,6.0,56,0.00,,,0.00,meteohub,2012-10-27 09:04:00,
2012-10-27 05:06:00,57.6,41.9,30.18,East,90,0.0,6.0,56,0.00,,,0.00,meteohub,2012-10-27 09:06:00,
2012-10-27 05:07:00,57.7,41.7,30.17,SE,135,4.0,6.0,55,0.00,,,0.00,meteohub,2012-10-27 09:07:00,
2012-10-27 05:09:00,57.7,41.7,30.17,SE,135,4.0,6.0,55,0.00,,,0.00,meteohub,2012-10-27 09:09:00,
2012-10-27 05:11:00,57.7,41.2,30.17,South,180,4.0,5.0,54,0.00,,,0.00,meteohub,2012-10-27 09:11:00,
2012-10-27 05:13:00,57.7,41.7,30.17,SE,135,4.0,5.0,55,0.00,,,0.00,meteohub,2012-10-27 09:13:00,
2012-10-27 05:15:00,57.7,41.7,30.17,East,90,4.0,5.0,55,0.00,,,0.00,meteohub,2012-10-27 09:15:00,
2012-10-27 05:16:00,57.7,41.7,30.17,WSW,248,4.0,5.0,55,0.00,,,0.00,meteohub,2012-10-27 09:16:00,
2012-10-27 05:18:00,57.7,41.7,30.17,North,0,0.0,5.0,55,0.00,,,0.00,meteohub,2012-10-27 09:18:00,
2012-10-27 05:20:00,57.6,41.5,30.17,East,90,6.0,6.0,55,0.00,,,0.00,meteohub,2012-10-27 09:20:00,
2012-10-27 05:21:00,57.7,41.7,30.18,East,90,5.0,5.0,55,0.00,,,0.00,meteohub,2012-10-27 09:21:00,
2012-10-27 05:22:00,57.7,41.7,30.18,South,180,2.0,5.0,55,0.00,,,0.00,meteohub,2012-10-27 09:22:00,
2012-10-27 05:23:00,57.7,41.7,30.18,SE,135,0.0,5.0,55,0.00,,,0.00,meteohub,2012-10-27 09:23:00,
2012-10-27 05:25:00,57.6,41.9,30.18,East,90,0.0,5.0,56,0.00,,,0.00,meteohub,2012-10-27 09:25:00,
2012-10-27 05:26:00,57.6,41.5,30.18,East,90,0.0,6.0,55,0.00,,,0.00,meteohub,2012-10-27 09:26:00,
2012-10-27 05:27:00,57.6,41.9,30.18,South,180,0.0,6.0,56,0.00,,,0.00,meteohub,2012-10-27 09:27:00,
2012-10-27 05:28:00,57.6,41.9,30.18,South,180,0.0,6.0,56,0.00,,,0.00,meteohub,2012-10-27 09:28:00,
2012-10-27 05:31:00,57.6,41.9,30.18,SE,135,0.0,6.0,56,0.00,,,0.00,meteohub,2012-10-27 09:31:00,
2012-10-27 05:32:00,57.6,41.9,30.18,East,90,0.0,6.0,56,0.00,,,0.00,meteohub,2012-10-27 09:32:00,
2012-10-27 05:34:00,57.6,42.4,30.18,South,180,0.0,6.0,57,0.00,,,0.00,meteohub,2012-10-27 09:34:00,
2012-10-27 05:36:00,57.6,42.4,30.18,SE,135,6.0,6.0,57,0.00,,,0.00,meteohub,2012-10-27 09:36:00,
2012-10-27 05:37:00,57.6,42.4,30.18,SE,135,6.0,6.0,57,0.00,,,0.00,meteohub,2012-10-27 09:37:00,
2012-10-27 05:39:00,57.6,42.4,30.18,East,90,1.0,5.0,57,0.00,,,0.00,meteohub,2012-10-27 09:39:00,
2012-10-27 05:40:00,57.6,42.4,30.18,East,90,1.0,5.0,57,0.00,,,0.00,meteohub,2012-10-27 09:40:00,
2012-10-27 05:41:00,57.7,42.1,30.18,SE,135,6.0,8.0,56,0.00,,,0.00,meteohub,2012-10-27 09:41:00,
2012-10-27 05:42:00,57.7,42.1,30.17,East,90,5.0,8.0,56,0.00,,,0.00,meteohub,2012-10-27 09:42:00,
2012-10-27 05:45:00,57.7,42.6,30.17,SE,135,4.0,8.0,57,0.00,,,0.00,meteohub,2012-10-27 09:45:00,
2012-10-27 05:47:00,57.6,42.4,30.17,SE,135,4.0,8.0,57,0.00,,,0.00,meteohub,2012-10-27 09:47:00,
2012-10-27 05:50:00,57.6,42.4,30.17,SE,135,6.0,8.0,57,0.00,,,0.00,meteohub,2012-10-27 09:50:00,
2012-10-27 05:51:00,57.6,42.4,30.17,SE,135,6.0,8.0,57,0.00,,,0.00,meteohub,2012-10-27 09:51:00,
2012-10-27 05:52:00,57.6,42.4,30.17,South,180,4.0,8.0,57,0.00,,,0.00,meteohub,2012-10-27 09:52:00,
2012-10-27 05:53:00,57.6,42.4,30.17,East,90,7.0,8.0,57,0.00,,,0.00,meteohub,2012-10-27 09:53:00,
2012-10-27 05:55:00,57.6,42.4,30.17,East,90,4.0,7.0,57,0.00,,,0.00,meteohub,2012-10-27 09:55:00,
2012-10-27 05:57:00,57.6,42.4,30.17,SE,135,6.0,7.0,57,0.00,,,0.00,meteohub,2012-10-27 09:57:00,
2012-10-27 05:58:00,57.6,43.0,30.17,SE,135,5.0,7.0,58,0.00,,,0.00,meteohub,2012-10-27 09:58:00,
2012-10-27 06:01:00,57.4,42.8,30.17,SE,135,5.0,7.0,58,0.00,,,0.00,meteohub,2012-10-27 10:01:00,
2012-10-27 06:02:00,57.4,42.8,30.17,SE,135,6.0,7.0,58,0.00,,,0.00,meteohub,2012-10-27 10:02:00,
2012-10-27 06:03:00,57.4,42.8,30.17,SE,135,8.0,8.0,58,0.00,,,0.00,meteohub,2012-10-27 10:03:00,
2012-10-27 06:04:00,57.4,42.8,30.17,SE,135,7.0,7.0,58,0.00,,,0.00,meteohub,2012-10-27 10:04:00,
2012-10-27 06:06:00,57.4,42.8,30.17,East,90,5.0,8.0,58,0.00,,,0.00,meteohub,2012-10-27 10:06:00,
2012-10-27 06:08:00,57.4,42.8,30.17,SE,135,4.0,8.0,58,0.00,,,0.00,meteohub,2012-10-27 10:08:00,
2012-10-27 06:10:00,57.4,42.8,30.17,SE,135,6.0,8.0,58,0.00,,,0.00,meteohub,2012-10-27 10:10:00,
2012-10-27 06:11:00,57.2,43.0,30.17,SE,135,6.0,10.0,59,0.00,,,0.00,meteohub,2012-10-27 10:11:00,
2012-10-27 06:13:00,57.2,43.0,30.17,SE,135,5.0,10.0,59,0.00,,,0.00,meteohub,2012-10-27 10:13:00,
2012-10-27 06:14:00,57.2,43.5,30.17,SE,135,5.0,10.0,60,0.00,,,0.00,meteohub,2012-10-27 10:14:00,
2012-10-27 06:15:00,57.2,43.5,30.17,SE,135,5.0,10.0,60,0.00,,,0.00,meteohub,2012-10-27 10:15:00,
2012-10-27 06:17:00,57.2,43.5,30.17,SE,135,5.0,10.0,60,0.00,,,0.00,meteohub,2012-10-27 10:17:00,
2012-10-27 06:18:00,57.2,43.5,30.17,SE,135,5.0,10.0,60,0.00,,,0.00,meteohub,2012-10-27 10:18:00,
2012-10-27 06:21:00,57.2,43.5,30.17,SE,135,5.0,7.0,60,0.00,,,0.00,meteohub,2012-10-27 10:21:00,
2012-10-27 06:23:00,57.0,43.7,30.17,NE,45,0.0,7.0,61,0.00,,,0.00,meteohub,2012-10-27 10:23:00,
2012-10-27 06:24:00,57.0,43.7,30.17,SE,135,0.0,7.0,61,0.00,,,0.00,meteohub,2012-10-27 10:24:00,
2012-10-27 06:26:00,57.0,43.7,30.17,SE,135,5.0,7.0,61,0.00,,,0.00,meteohub,2012-10-27 10:26:00,
2012-10-27 06:27:00,57.0,43.7,30.17,SE,135,8.0,8.0,61,0.00,,,0.00,meteohub,2012-10-27 10:27:00,
2012-10-27 06:29:00,57.0,44.1,30.17,ESE,113,5.0,7.0,62,0.00,,,0.00,meteohub,2012-10-27 10:29:00,
2012-10-27 06:33:00,57.0,44.1,30.17,SE,135,5.0,8.0,62,0.00,,,0.00,meteohub,2012-10-27 10:33:00,
2012-10-27 06:34:00,57.0,44.1,30.17,East,90,4.0,8.0,62,0.00,,,0.00,meteohub,2012-10-27 10:34:00,
2012-10-27 06:35:00,57.0,44.1,30.17,SE,135,4.0,8.0,62,0.00,,,0.00,meteohub,2012-10-27 10:35:00,
2012-10-27 06:38:00,56.8,43.9,30.17,East,90,4.0,8.0,62,0.00,,,0.00,meteohub,2012-10-27 10:38:00,
2012-10-27 06:40:00,56.8,44.4,30.17,SE,135,7.0,8.0,63,0.00,,,0.00,meteohub,2012-10-27 10:40:00,
2012-10-27 06:41:00,56.8,44.4,30.17,East,90,5.0,8.0,63,0.00,,,0.00,meteohub,2012-10-27 10:41:00,
2012-10-27 06:43:00,56.8,44.4,30.17,East,90,7.0,8.0,63,0.00,,,0.00,meteohub,2012-10-27 10:43:00,
2012-10-27 06:44:00,56.8,44.4,30.17,East,90,6.0,8.0,63,0.00,,,0.00,meteohub,2012-10-27 10:44:00,
2012-10-27 06:45:00,56.8,44.4,30.17,SE,135,5.0,7.0,63,0.00,,,0.00,meteohub,2012-10-27 10:45:00,
2012-10-27 06:47:00,57.0,44.6,30.17,SE,135,6.0,7.0,63,0.00,,,0.00,meteohub,2012-10-27 10:47:00,
2012-10-27 06:49:00,57.0,44.6,30.17,SE,135,4.0,7.0,63,0.00,,,0.00,meteohub,2012-10-27 10:49:00,
2012-10-27 06:51:00,57.0,44.6,30.17,SE,135,3.0,7.0,63,0.00,,,0.00,meteohub,2012-10-27 10:51:00,
2012-10-27 06:52:00,57.0,44.6,30.17,East,90,4.0,7.0,63,0.00,,,0.00,meteohub,2012-10-27 10:52:00,
2012-10-27 06:54:00,57.0,44.6,30.17,SE,135,4.0,7.0,63,0.00,,,0.00,meteohub,2012-10-27 10:54:00,
2012-10-27 06:55:00,57.0,44.6,30.17,SE,135,5.0,7.0,63,0.00,,,0.00,meteohub,2012-10-27 10:55:00,
2012-10-27 06:56:00,57.0,44.6,30.17,East,90,5.0,7.0,63,0.00,,,0.00,meteohub,2012-10-27 10:56:00,
2012-10-27 06:58:00,57.0,44.6,30.17,SE,135,4.0,7.0,63,0.00,,,0.00,meteohub,2012-10-27 10:58:00,
2012-10-27 07:00:00,57.0,44.6,30.17,East,90,4.0,7.0,63,0.00,,,0.00,meteohub,2012-10-27 11:00:00,
2012-10-27 07:02:00,57.0,44.6,30.17,East,90,4.0,7.0,63,0.00,,,0.00,meteohub,2012-10-27 11:02:00,
2012-10-27 07:03:00,57.0,44.6,30.17,East,90,4.0,7.0,63,0.00,,,0.00,meteohub,2012-10-27 11:03:00,
2012-10-27 07:06:00,57.0,44.6,30.18,East,90,4.0,5.0,63,0.00,,,0.00,meteohub,2012-10-27 11:06:00,
2012-10-27 07:07:00,56.8,44.4,30.18,SE,135,4.0,5.0,63,0.00,,,0.00,meteohub,2012-10-27 11:07:00,
2012-10-27 07:08:00,56.8,44.4,30.18,SE,135,4.0,5.0,63,0.00,,,0.00,meteohub,2012-10-27 11:08:00,
2012-10-27 07:11:00,56.8,44.4,30.17,SE,135,6.0,7.0,63,0.00,,,0.00,meteohub,2012-10-27 11:11:00,
2012-10-27 07:13:00,56.8,44.4,30.17,East,90,5.0,7.0,63,0.00,,,0.00,meteohub,2012-10-27 11:13:00,
2012-10-27 07:14:00,56.8,44.4,30.17,East,90,5.0,7.0,63,0.00,,,0.00,meteohub,2012-10-27 11:14:00,
2012-10-27 07:15:00,56.8,44.4,30.17,East,90,4.0,7.0,63,0.00,,,0.00,meteohub,2012-10-27 11:15:00,
2012-10-27 07:17:00,56.8,44.4,30.17,South,180,5.0,8.0,63,0.00,,,0.00,meteohub,2012-10-27 11:17:00,
2012-10-27 07:19:00,56.8,44.4,30.17,East,90,5.0,8.0,63,0.00,,,0.00,meteohub,2012-10-27 11:19:00,
2012-10-27 07:20:00,56.8,44.4,30.17,East,90,5.0,8.0,63,0.00,,,0.00,meteohub,2012-10-27 11:20:00,
2012-10-27 07:22:00,56.7,44.2,30.17,East,90,7.0,8.0,63,0.00,,,0.00,meteohub,2012-10-27 11:22:00,
2012-10-27 07:24:00,56.7,44.2,30.18,East,90,6.0,8.0,63,0.00,,,0.00,meteohub,2012-10-27 11:24:00,
2012-10-27 07:25:00,56.7,44.2,30.17,SE,135,5.0,8.0,63,0.00,,,0.00,meteohub,2012-10-27 11:25:00,
2012-10-27 07:27:00,56.7,44.2,30.17,SE,135,8.0,8.0,63,0.00,,,0.00,meteohub,2012-10-27 11:27:00,
2012-10-27 07:30:00,56.7,44.2,30.17,East,90,4.0,8.0,63,0.00,,,0.00,meteohub,2012-10-27 11:30:00,
2012-10-27 07:31:00,56.7,44.2,30.17,SE,135,4.0,8.0,63,0.00,,,0.00,meteohub,2012-10-27 11:31:00,
2012-10-27 07:33:00,56.5,44.4,30.17,SE,135,4.0,8.0,64,0.00,,,0.00,meteohub,2012-10-27 11:33:00,
2012-10-27 07:35:00,56.5,44.4,30.17,SE,135,4.0,8.0,64,0.00,,,0.00,meteohub,2012-10-27 11:35:00,
2012-10-27 07:36:00,56.5,44.4,30.17,East,90,4.0,8.0,64,0.00,,,0.00,meteohub,2012-10-27 11:36:00,
2012-10-27 07:39:00,56.3,44.2,30.18,SE,135,8.0,8.0,64,0.00,,,0.00,meteohub,2012-10-27 11:39:00,
2012-10-27 07:41:00,56.3,44.2,30.17,East,90,5.0,8.0,64,0.00,,,0.00,meteohub,2012-10-27 11:41:00,
2012-10-27 07:42:00,56.5,44.4,30.17,NE,45,4.0,8.0,64,0.00,,,0.00,meteohub,2012-10-27 11:42:00,
2012-10-27 07:44:00,56.3,44.2,30.17,East,90,4.0,8.0,64,0.00,,,0.00,meteohub,2012-10-27 11:44:00,
2012-10-27 07:46:00,56.3,44.6,30.18,East,90,4.0,8.0,65,0.00,,,0.00,meteohub,2012-10-27 11:46:00,
2012-10-27 07:47:00,56.3,44.6,30.17,East,90,4.0,8.0,65,0.00,,,0.00,meteohub,2012-10-27 11:47:00,
2012-10-27 07:48:00,56.3,44.6,30.18,East,90,4.0,8.0,65,0.00,,,0.00,meteohub,2012-10-27 11:48:00,
2012-10-27 07:50:00,56.3,44.6,30.18,SE,135,4.0,8.0,65,0.00,,,0.00,meteohub,2012-10-27 11:50:00,
2012-10-27 07:52:00,56.3,44.6,30.18,East,90,4.0,8.0,65,0.00,,,0.00,meteohub,2012-10-27 11:52:00,
2012-10-27 07:54:00,56.3,44.6,30.18,SE,135,3.0,8.0,65,0.00,,,0.00,meteohub,2012-10-27 11:54:00,
2012-10-27 07:55:00,56.3,44.6,30.18,SE,135,3.0,8.0,65,0.00,,,0.00,meteohub,2012-10-27 11:55:00,
2012-10-27 07:57:00,56.3,44.6,30.18,East,90,4.0,5.0,65,0.00,,,0.00,meteohub,2012-10-27 11:57:00,
2012-10-27 07:59:00,56.3,44.6,30.18,SE,135,4.0,5.0,65,0.00,,,0.00,meteohub,2012-10-27 11:59:00,
2012-10-27 08:00:00,56.3,44.6,30.18,SE,135,4.0,5.0,65,0.00,,,0.00,meteohub,2012-10-27 12:00:00,
2012-10-27 08:02:00,56.3,44.6,30.18,SE,135,4.0,4.0,65,0.00,,,0.00,meteohub,2012-10-27 12:02:00,
2012-10-27 08:04:00,56.3,44.6,30.17,SE,135,4.0,4.0,65,0.00,,,0.00,meteohub,2012-10-27 12:04:00,
2012-10-27 08:06:00,56.3,44.6,30.18,SE,135,4.0,4.0,65,0.00,,,0.00,meteohub,2012-10-27 12:06:00,
2012-10-27 08:08:00,56.3,44.2,30.18,SE,135,0.0,4.0,64,0.00,,,0.00,meteohub,2012-10-27 12:08:00,
2012-10-27 08:09:00,56.3,44.2,30.18,East,90,0.0,4.0,64,0.00,,,0.00,meteohub,2012-10-27 12:09:00,
2012-10-27 08:11:00,56.5,44.1,30.18,East,90,5.0,5.0,63,0.00,,,0.00,meteohub,2012-10-27 12:11:00,
2012-10-27 08:12:00,56.5,44.1,30.18,East,90,5.0,5.0,63,0.00,,,0.00,meteohub,2012-10-27 12:12:00,
2012-10-27 08:13:00,56.5,44.1,30.17,East,90,9.0,9.0,63,0.00,,,0.00,meteohub,2012-10-27 12:13:00,
2012-10-27 08:14:00,56.5,44.1,30.18,SE,135,10.0,10.0,63,0.00,,,0.00,meteohub,2012-10-27 12:14:00,
2012-10-27 08:17:00,56.7,43.7,30.18,East,90,4.0,9.0,62,0.00,,,0.00,meteohub,2012-10-27 12:17:00,
2012-10-27 08:18:00,56.7,43.7,30.18,SE,135,3.0,9.0,62,0.00,,,0.00,meteohub,2012-10-27 12:18:00,
2012-10-27 08:21:00,56.7,43.7,30.18,East,90,0.0,10.0,62,0.00,,,0.00,meteohub,2012-10-27 12:21:00,
2012-10-27 08:23:00,56.7,43.7,30.18,SE,135,0.0,10.0,62,0.00,,,0.00,meteohub,2012-10-27 12:23:00,
2012-10-27 08:26:00,56.7,43.7,30.18,East,90,0.0,10.0,62,0.00,,,0.00,meteohub,2012-10-27 12:26:00,
2012-10-27 08:28:00,56.7,43.3,30.18,East,90,4.0,10.0,61,0.00,,,0.00,meteohub,2012-10-27 12:28:00,
2012-10-27 08:30:00,56.7,43.3,30.18,East,90,7.0,10.0,61,0.00,,,0.00,meteohub,2012-10-27 12:30:00,
2012-10-27 08:31:00,56.8,43.5,30.18,East,90,7.0,9.0,61,0.00,,,0.00,meteohub,2012-10-27 12:31:00,
2012-10-27 08:33:00,56.8,43.2,30.19,East,90,5.0,9.0,60,0.00,,,0.00,meteohub,2012-10-27 12:33:00,
2012-10-27 08:34:00,56.8,43.2,30.19,East,90,5.0,9.0,60,0.00,,,0.00,meteohub,2012-10-27 12:34:00,
2012-10-27 08:35:00,56.8,43.2,30.19,SE,135,4.0,9.0,60,0.00,,,0.00,meteohub,2012-10-27 12:35:00,
2012-10-27 08:37:00,56.8,43.2,30.19,SE,135,7.0,9.0,60,0.00,,,0.00,meteohub,2012-10-27 12:37:00,
2012-10-27 08:38:00,57.0,43.3,30.19,SE,135,4.0,9.0,60,0.00,,,0.00,meteohub,2012-10-27 12:38:00,
2012-10-27 08:39:00,57.0,43.3,30.18,East,90,6.0,9.0,60,0.00,,,0.00,meteohub,2012-10-27 12:39:00,
2012-10-27 08:41:00,57.0,42.8,30.19,SE,135,5.0,9.0,59,0.00,,,0.00,meteohub,2012-10-27 12:41:00,
2012-10-27 08:42:00,57.0,42.8,30.19,SE,135,4.0,9.0,59,0.00,,,0.00,meteohub,2012-10-27 12:42:00,
2012-10-27 08:44:00,57.2,43.0,30.18,East,90,0.0,9.0,59,0.00,,,0.00,meteohub,2012-10-27 12:44:00,
2012-10-27 08:45:00,57.2,43.0,30.18,South,180,4.0,9.0,59,0.00,,,0.00,meteohub,2012-10-27 12:45:00,
2012-10-27 08:46:00,57.2,42.6,30.19,SE,135,0.0,7.0,58,0.00,,,0.00,meteohub,2012-10-27 12:46:00,
2012-10-27 08:48:00,57.4,42.8,30.19,East,90,0.0,7.0,58,0.00,,,0.00,meteohub,2012-10-27 12:48:00,
2012-10-27 08:49:00,57.4,42.8,30.18,East,90,0.0,7.0,58,0.00,,,0.00,meteohub,2012-10-27 12:49:00,
2012-10-27 08:50:00,57.4,42.8,30.18,East,90,1.0,7.0,58,0.00,,,0.00,meteohub,2012-10-27 12:50:00,
2012-10-27 08:52:00,57.6,42.4,30.19,SE,135,5.0,7.0,57,0.00,,,0.00,meteohub,2012-10-27 12:52:00,
2012-10-27 08:53:00,57.6,42.4,30.18,SE,135,0.0,7.0,57,0.00,,,0.00,meteohub,2012-10-27 12:53:00,
2012-10-27 08:55:00,57.6,41.9,30.18,ESE,113,0.0,7.0,56,0.00,,,0.00,meteohub,2012-10-27 12:55:00,
2012-10-27 08:57:00,57.7,42.1,30.19,East,90,0.0,7.0,56,0.00,,,0.00,meteohub,2012-10-27 12:57:00,
2012-10-27 08:59:00,57.7,41.7,30.19,East,90,0.0,7.0,55,0.00,,,0.00,meteohub,2012-10-27 12:59:00,
2012-10-27 09:00:00,57.7,41.7,30.19,SE,135,0.0,7.0,55,0.00,,,0.00,meteohub,2012-10-27 13:00:00,
2012-10-27 09:02:00,57.7,41.7,30.19,SE,135,0.0,7.0,55,0.00,,,0.00,meteohub,2012-10-27 13:02:00,
2012-10-27 09:05:00,57.7,41.7,30.19,SE,135,0.0,7.0,55,0.00,,,0.00,meteohub,2012-10-27 13:05:00,
2012-10-27 09:07:00,57.7,41.7,30.19,SE,135,0.0,7.0,55,0.00,,,0.00,meteohub,2012-10-27 13:07:00,
2012-10-27 09:10:00,57.9,41.4,30.19,SE,135,0.0,7.0,54,0.00,,,0.00,meteohub,2012-10-27 13:10:00,
2012-10-27 09:11:00,57.9,41.4,30.19,SE,135,0.0,2.0,54,0.00,,,0.00,meteohub,2012-10-27 13:11:00,
2012-10-27 09:12:00,57.9,41.4,30.19,SE,135,0.0,2.0,54,0.00,,,0.00,meteohub,2012-10-27 13:12:00,
2012-10-27 09:16:00,57.9,40.8,30.19,East,90,0.0,0.0,53,0.00,,,0.00,meteohub,2012-10-27 13:16:00,
2012-10-27 09:17:00,57.9,40.8,30.19,SE,135,0.0,0.0,53,0.00,,,0.00,meteohub,2012-10-27 13:17:00,
2012-10-27 09:21:00,57.9,40.8,30.19,SE,135,9.0,0.0,53,0.00,,,0.00,meteohub,2012-10-27 13:21:00,
2012-10-27 09:22:00,57.9,40.8,30.19,SE,135,9.0,0.0,53,0.00,,,0.00,meteohub,2012-10-27 13:22:00,
2012-10-27 09:23:00,57.9,40.8,30.19,ESE,113,7.0,0.0,53,0.00,,,0.00,meteohub,2012-10-27 13:23:00,
2012-10-27 09:26:00,57.9,40.5,30.19,SE,135,0.0,9.0,52,0.00,,,0.00,meteohub,2012-10-27 13:26:00,
2012-10-27 09:28:00,57.9,40.5,30.19,SE,135,0.0,9.0,52,0.00,,,0.00,meteohub,2012-10-27 13:28:00,
2012-10-27 09:33:00,58.1,40.1,30.19,SE,135,0.0,9.0,51,0.00,,,0.00,meteohub,2012-10-27 13:33:00,
2012-10-27 09:34:00,58.3,40.3,30.19,SE,135,5.0,9.0,51,0.00,,,0.00,meteohub,2012-10-27 13:34:00,
2012-10-27 09:38:00,58.6,39.6,30.19,East,90,0.0,9.0,49,0.00,,,0.00,meteohub,2012-10-27 13:38:00,
2012-10-27 09:39:00,58.6,39.6,30.19,SE,135,0.0,9.0,49,0.00,,,0.00,meteohub,2012-10-27 13:39:00,
2012-10-27 09:43:00,58.8,39.7,30.19,SE,135,2.0,5.0,49,0.00,,,0.00,meteohub,2012-10-27 13:43:00,
2012-10-27 09:44:00,59.0,39.4,30.19,East,90,0.0,5.0,48,0.00,,,0.00,meteohub,2012-10-27 13:44:00,
2012-10-27 09:45:00,59.0,38.8,30.19,SE,135,3.0,5.0,47,0.00,,,0.00,meteohub,2012-10-27 13:45:00,
2012-10-27 09:48:00,59.0,38.8,30.19,SE,135,7.0,7.0,47,0.00,,,0.00,meteohub,2012-10-27 13:48:00,
2012-10-27 09:49:00,59.2,39.0,30.19,SE,135,4.0,7.0,47,0.00,,,0.00,meteohub,2012-10-27 13:49:00,
2012-10-27 09:50:00,59.2,39.0,30.19,SE,135,0.0,7.0,47,0.00,,,0.00,meteohub,2012-10-27 13:50:00,
2012-10-27 09:51:00,59.2,39.0,30.19,South,180,4.0,7.0,47,0.00,,,0.00,meteohub,2012-10-27 13:51:00,
2012-10-27 09:53:00,59.4,38.7,30.19,South,180,0.0,7.0,46,0.00,,,0.00,meteohub,2012-10-27 13:53:00,
2012-10-27 09:54:00,59.7,38.3,30.20,SE,135,0.0,7.0,45,0.00,,,0.00,meteohub,2012-10-27 13:54:00,
2012-10-27 09:55:00,59.7,38.3,30.19,East,90,0.0,7.0,45,0.00,,,0.00,meteohub,2012-10-27 13:55:00,
2012-10-27 09:56:00,59.9,38.5,30.19,SE,135,0.0,7.0,45,0.00,,,0.00,meteohub,2012-10-27 13:56:00,
2012-10-27 10:00:00,60.4,37.2,30.20,SE,135,0.0,7.0,42,0.00,,,0.00,meteohub,2012-10-27 14:00:00,
2012-10-27 10:01:00,60.4,37.2,30.19,SE,135,0.0,7.0,42,0.00,,,0.00,meteohub,2012-10-27 14:01:00,
2012-10-27 10:05:00,60.4,37.2,30.20,SE,135,0.0,7.0,42,0.00,,,0.00,meteohub,2012-10-27 14:05:00,
2012-10-27 10:06:00,60.4,37.2,30.19,SE,135,0.0,4.0,42,0.00,,,0.00,meteohub,2012-10-27 14:06:00,
2012-10-27 10:07:00,60.3,35.8,30.20,East,90,0.0,4.0,40,0.00,,,0.00,meteohub,2012-10-27 14:07:00,
2012-10-27 10:10:00,60.1,35.6,30.20,SE,135,0.0,11.0,40,0.00,,,0.00,meteohub,2012-10-27 14:10:00,
2012-10-27 10:12:00,60.1,35.6,30.20,SE,135,4.0,11.0,40,0.00,,,0.00,meteohub,2012-10-27 14:12:00,
2012-10-27 10:13:00,59.9,35.6,30.20,SE,135,2.0,11.0,40,0.00,,,0.00,meteohub,2012-10-27 14:13:00,
2012-10-27 10:16:00,59.9,36.1,30.20,East,90,0.0,11.0,41,0.00,,,0.00,meteohub,2012-10-27 14:16:00,
2012-10-27 10:17:00,60.1,35.6,30.20,East,90,0.0,11.0,40,0.00,,,0.00,meteohub,2012-10-27 14:17:00,
2012-10-27 10:18:00,60.1,35.6,30.20,East,90,0.0,11.0,40,0.00,,,0.00,meteohub,2012-10-27 14:18:00,
2012-10-27 10:21:00,60.1,35.6,30.20,SE,135,0.0,11.0,40,0.00,,,0.00,meteohub,2012-10-27 14:21:00,
2012-10-27 10:22:00,60.3,35.8,30.20,SE,135,0.0,11.0,40,0.00,,,0.00,meteohub,2012-10-27 14:22:00,
2012-10-27 10:24:00,60.3,35.2,30.20,South,180,0.0,11.0,39,0.00,,,0.00,meteohub,2012-10-27 14:24:00,
2012-10-27 10:26:00,60.3,35.2,30.20,SE,135,0.0,4.0,39,0.00,,,0.00,meteohub,2012-10-27 14:26:00,
2012-10-27 10:28:00,60.1,35.1,30.20,East,90,0.0,4.0,39,0.00,,,0.00,meteohub,2012-10-27 14:28:00,
2012-10-27 10:30:00,60.3,35.2,30.20,East,90,0.0,1.0,39,0.00,,,0.00,meteohub,2012-10-27 14:30:00,
2012-10-27 10:31:00,60.3,35.2,30.20,SE,135,0.0,1.0,39,0.00,,,0.00,meteohub,2012-10-27 14:31:00,
2012-10-27 10:33:00,60.3,35.2,30.20,South,180,0.0,1.0,39,0.00,,,0.00,meteohub,2012-10-27 14:33:00,
2012-10-27 10:34:00,60.3,35.2,30.20,East,90,0.0,1.0,39,0.00,,,0.00,meteohub,2012-10-27 14:34:00,
2012-10-27 10:36:00,60.4,35.4,30.20,SE,135,0.0,1.0,39,0.00,,,0.00,meteohub,2012-10-27 14:36:00,
2012-10-27 10:37:00,60.4,35.4,30.20,SE,135,0.0,1.0,39,0.00,,,0.00,meteohub,2012-10-27 14:37:00,
2012-10-27 10:39:00,60.4,34.7,30.20,South,180,2.0,2.0,38,0.00,,,0.00,meteohub,2012-10-27 14:39:00,
2012-10-27 10:40:00,60.4,34.7,30.20,ENE,68,0.0,1.0,38,0.00,,,0.00,meteohub,2012-10-27 14:40:00,
2012-10-27 10:42:00,60.4,34.7,30.20,South,180,0.0,2.0,38,0.00,,,0.00,meteohub,2012-10-27 14:42:00,
2012-10-27 10:45:00,60.4,34.7,30.20,ESE,113,0.0,2.0,38,0.00,,,0.00,meteohub,2012-10-27 14:45:00,
2012-10-27 10:46:00,60.4,34.7,30.20,South,180,0.0,2.0,38,0.00,,,0.00,meteohub,2012-10-27 14:46:00,
2012-10-27 10:47:00,60.4,34.7,30.20,SE,135,0.0,2.0,38,0.00,,,0.00,meteohub,2012-10-27 14:47:00,
2012-10-27 10:48:00,60.4,34.7,30.20,SE,135,0.0,2.0,38,0.00,,,0.00,meteohub,2012-10-27 14:48:00,
2012-10-27 10:50:00,60.4,35.4,30.20,East,90,0.0,4.0,39,0.00,,,0.00,meteohub,2012-10-27 14:50:00,
2012-10-27 10:52:00,60.4,34.7,30.20,SE,135,0.0,4.0,38,0.00,,,0.00,meteohub,2012-10-27 14:52:00,
2012-10-27 10:53:00,60.4,35.4,30.20,East,90,0.0,4.0,39,0.00,,,0.00,meteohub,2012-10-27 14:53:00,
2012-10-27 10:55:00,60.4,35.4,30.19,East,90,1.0,4.0,39,0.00,,,0.00,meteohub,2012-10-27 14:55:00,
2012-10-27 10:57:00,60.4,35.4,30.20,East,90,0.0,4.0,39,0.00,,,0.00,meteohub,2012-10-27 14:57:00,
2012-10-27 10:58:00,60.4,35.4,30.19,East,90,0.0,4.0,39,0.00,,,0.00,meteohub,2012-10-27 14:58:00,
2012-10-27 10:59:00,60.4,35.4,30.19,East,90,0.0,4.0,39,0.00,,,0.00,meteohub,2012-10-27 14:59:00,
2012-10-27 11:00:00,60.4,35.4,30.19,East,90,0.0,4.0,39,0.00,,,0.00,meteohub,2012-10-27 15:00:00,
2012-10-27 11:02:00,60.6,34.9,30.19,SE,135,8.0,8.0,38,0.00,,,0.00,meteohub,2012-10-27 15:02:00,
2012-10-27 11:03:00,60.6,34.9,30.19,SE,135,8.0,8.0,38,0.00,,,0.00,meteohub,2012-10-27 15:03:00,
2012-10-27 11:05:00,60.4,35.4,30.19,South,180,0.0,4.0,39,0.00,,,0.00,meteohub,2012-10-27 15:05:00,
2012-10-27 11:06:00,60.6,35.6,30.19,SE,135,0.0,8.0,39,0.00,,,0.00,meteohub,2012-10-27 15:06:00,
2012-10-27 11:08:00,60.6,34.9,30.20,East,90,0.0,8.0,38,0.00,,,0.00,meteohub,2012-10-27 15:08:00,
2012-10-27 11:10:00,61.0,34.5,30.20,SE,135,0.0,8.0,37,0.00,,,0.00,meteohub,2012-10-27 15:10:00,
2012-10-27 11:11:00,61.0,34.5,30.19,SE,135,0.0,8.0,37,0.00,,,0.00,meteohub,2012-10-27 15:11:00,
2012-10-27 11:13:00,61.3,34.2,30.20,South,180,0.0,8.0,36,0.00,,,0.00,meteohub,2012-10-27 15:13:00,
2012-10-27 11:14:00,61.3,34.2,30.20,East,90,0.0,8.0,36,0.00,,,0.00,meteohub,2012-10-27 15:14:00,
2012-10-27 11:16:00,61.9,34.0,30.19,South,180,7.0,8.0,35,0.00,,,0.00,meteohub,2012-10-27 15:16:00,
2012-10-27 11:17:00,61.9,32.5,30.20,South,180,0.0,8.0,33,0.00,,,0.00,meteohub,2012-10-27 15:17:00,
2012-10-27 11:18:00,61.9,32.5,30.19,East,90,0.0,8.0,33,0.00,,,0.00,meteohub,2012-10-27 15:18:00,
2012-10-27 11:20:00,61.7,32.4,30.20,SE,135,0.0,8.0,33,0.00,,,0.00,meteohub,2012-10-27 15:20:00,
2012-10-27 11:21:00,61.7,32.4,30.19,East,90,0.0,7.0,33,0.00,,,0.00,meteohub,2012-10-27 15:21:00,
2012-10-27 11:22:00,61.7,32.4,30.19,SE,135,0.0,7.0,33,0.00,,,0.00,meteohub,2012-10-27 15:22:00,
2012-10-27 11:24:00,61.7,31.5,30.19,SE,135,0.0,7.0,32,0.00,,,0.00,meteohub,2012-10-27 15:24:00,
2012-10-27 11:25:00,61.7,32.4,30.19,SE,135,0.0,7.0,33,0.00,,,0.00,meteohub,2012-10-27 15:25:00,
2012-10-27 11:26:00,61.7,32.4,30.19,SE,135,0.0,7.0,33,0.00,,,0.00,meteohub,2012-10-27 15:26:00,
2012-10-27 11:29:00,61.7,31.5,30.19,WSW,248,0.0,7.0,32,0.00,,,0.00,meteohub,2012-10-27 15:29:00,
2012-10-27 11:31:00,61.5,32.2,30.20,East,90,0.0,7.0,33,0.00,,,0.00,meteohub,2012-10-27 15:31:00,
2012-10-27 11:34:00,61.5,32.2,30.19,North,0,0.0,7.0,33,0.00,,,0.00,meteohub,2012-10-27 15:34:00,
2012-10-27 11:36:00,61.5,32.2,30.19,East,90,1.0,9.0,33,0.00,,,0.00,meteohub,2012-10-27 15:36:00,
2012-10-27 11:37:00,61.5,31.5,30.19,South,180,0.0,9.0,32,0.00,,,0.00,meteohub,2012-10-27 15:37:00,
2012-10-27 11:40:00,61.2,31.1,30.19,SE,135,0.0,9.0,32,0.00,,,0.00,meteohub,2012-10-27 15:40:00,
2012-10-27 11:41:00,61.0,31.6,30.19,SE,135,0.0,9.0,33,0.00,,,0.00,meteohub,2012-10-27 15:41:00,
2012-10-27 11:42:00,61.0,31.6,30.19,East,90,0.0,9.0,33,0.00,,,0.00,meteohub,2012-10-27 15:42:00,
2012-10-27 11:45:00,61.2,31.8,30.20,South,180,4.0,9.0,33,0.00,,,0.00,meteohub,2012-10-27 15:45:00,
2012-10-27 11:46:00,61.2,31.8,30.19,South,180,4.0,9.0,33,0.00,,,0.00,meteohub,2012-10-27 15:46:00,
2012-10-27 11:47:00,61.3,32.0,30.19,SE,135,0.0,9.0,33,0.00,,,0.00,meteohub,2012-10-27 15:47:00,
2012-10-27 11:49:00,61.3,31.3,30.20,South,180,0.0,9.0,32,0.00,,,0.00,meteohub,2012-10-27 15:49:00,
2012-10-27 11:50:00,61.3,31.3,30.20,WSW,248,7.0,7.0,32,0.00,,,0.00,meteohub,2012-10-27 15:50:00,
2012-10-27 11:51:00,61.2,31.8,30.19,South,180,2.0,4.0,33,0.00,,,0.00,meteohub,2012-10-27 15:51:00,
2012-10-27 11:53:00,61.0,31.6,30.19,WSW,248,1.0,4.0,33,0.00,,,0.00,meteohub,2012-10-27 15:53:00,
2012-10-27 11:54:00,60.8,31.5,30.19,WSW,248,5.0,5.0,33,0.00,,,0.00,meteohub,2012-10-27 15:54:00,
2012-10-27 11:56:00,60.4,32.0,30.19,East,90,2.0,7.0,34,0.00,,,0.00,meteohub,2012-10-27 15:56:00,
2012-10-27 11:57:00,60.4,32.0,30.19,SE,135,2.0,7.0,34,0.00,,,0.00,meteohub,2012-10-27 15:57:00,
2012-10-27 11:58:00,60.4,32.0,30.19,SE,135,2.0,7.0,34,0.00,,,0.00,meteohub,2012-10-27 15:58:00,
2012-10-27 12:00:00,60.4,32.0,30.19,South,180,0.0,7.0,34,0.00,,,0.00,meteohub,2012-10-27 16:00:00,
2012-10-27 12:02:00,60.6,32.2,30.19,SE,135,0.0,7.0,34,0.00,,,0.00,meteohub,2012-10-27 16:02:00,
2012-10-27 12:04:00,60.8,32.2,30.19,SE,135,0.0,7.0,34,0.00,,,0.00,meteohub,2012-10-27 16:04:00,
2012-10-27 12:05:00,60.8,32.2,30.19,South,180,4.0,7.0,34,0.00,,,0.00,meteohub,2012-10-27 16:05:00,
2012-10-27 12:07:00,61.0,31.6,30.19,SE,135,0.0,7.0,33,0.00,,,0.00,meteohub,2012-10-27 16:07:00,
2012-10-27 12:08:00,61.0,31.6,30.19,SE,135,2.0,7.0,33,0.00,,,0.00,meteohub,2012-10-27 16:08:00,
2012-10-27 12:10:00,61.0,31.6,30.19,SSW,203,4.0,7.0,33,0.00,,,0.00,meteohub,2012-10-27 16:10:00,
2012-10-27 12:12:00,61.0,31.6,30.19,East,90,0.0,4.0,33,0.00,,,0.00,meteohub,2012-10-27 16:12:00,
2012-10-27 12:13:00,61.0,31.6,30.19,East,90,0.0,4.0,33,0.00,,,0.00,meteohub,2012-10-27 16:13:00,
2012-10-27 12:15:00,60.8,31.5,30.19,SE,135,1.0,4.0,33,0.00,,,0.00,meteohub,2012-10-27 16:15:00,
2012-10-27 12:17:00,61.0,31.6,30.18,SE,135,0.0,4.0,33,0.00,,,0.00,meteohub,2012-10-27 16:17:00,
2012-10-27 12:18:00,61.0,31.6,30.18,SE,135,0.0,4.0,33,0.00,,,0.00,meteohub,2012-10-27 16:18:00,
2012-10-27 12:19:00,60.8,31.5,30.18,SE,135,0.0,4.0,33,0.00,,,0.00,meteohub,2012-10-27 16:19:00,
2012-10-27 12:21:00,60.8,31.5,30.18,SE,135,0.0,4.0,33,0.00,,,0.00,meteohub,2012-10-27 16:21:00,
2012-10-27 12:23:00,61.0,31.6,30.18,NE,45,0.0,4.0,33,0.00,,,0.00,meteohub,2012-10-27 16:23:00,
2012-10-27 12:25:00,61.0,30.9,30.18,NE,45,0.0,2.0,32,0.00,,,0.00,meteohub,2012-10-27 16:25:00,
2012-10-27 12:26:00,61.0,30.9,30.18,SSE,158,0.0,2.0,32,0.00,,,0.00,meteohub,2012-10-27 16:26:00,
2012-10-27 12:28:00,61.0,30.9,30.18,East,90,0.0,2.0,32,0.00,,,0.00,meteohub,2012-10-27 16:28:00,
2012-10-27 12:31:00,61.2,31.1,30.18,East,90,1.0,1.0,32,0.00,,,0.00,meteohub,2012-10-27 16:31:00,
2012-10-27 12:33:00,61.2,30.2,30.18,South,180,4.0,4.0,31,0.00,,,0.00,meteohub,2012-10-27 16:33:00,
2012-10-27 12:34:00,61.2,30.2,30.18,East,90,0.0,1.0,31,0.00,,,0.00,meteohub,2012-10-27 16:34:00,
2012-10-27 12:36:00,61.2,30.2,30.17,East,90,0.0,4.0,31,0.00,,,0.00,meteohub,2012-10-27 16:36:00,
2012-10-27 12:37:00,61.2,30.2,30.18,East,90,0.0,4.0,31,0.00,,,0.00,meteohub,2012-10-27 16:37:00,
2012-10-27 12:39:00,61.0,30.2,30.17,East,90,0.0,4.0,31,0.00,,,0.00,meteohub,2012-10-27 16:39:00,
2012-10-27 12:40:00,61.0,30.2,30.17,SE,135,0.0,4.0,31,0.00,,,0.00,meteohub,2012-10-27 16:40:00,
2012-10-27 12:42:00,61.0,30.9,30.17,East,90,0.0,4.0,32,0.00,,,0.00,meteohub,2012-10-27 16:42:00,
2012-10-27 12:45:00,61.2,30.2,30.17,ESE,113,0.0,4.0,31,0.00,,,0.00,meteohub,2012-10-27 16:45:00,
2012-10-27 12:48:00,61.2,30.2,30.17,WSW,248,0.0,4.0,31,0.00,,,0.00,meteohub,2012-10-27 16:48:00,
2012-10-27 12:50:00,61.2,30.2,30.17,WSW,248,0.0,4.0,31,0.00,,,0.00,meteohub,2012-10-27 16:50:00,
2012-10-27 12:51:00,61.2,30.2,30.17,WSW,248,1.0,4.0,31,0.00,,,0.00,meteohub,2012-10-27 16:51:00,
2012-10-27 12:53:00,61.2,30.2,30.17,SE,135,1.0,4.0,31,0.00,,,0.00,meteohub,2012-10-27 16:53:00,
2012-10-27 12:55:00,61.3,30.4,30.17,South,180,2.0,4.0,31,0.00,,,0.00,meteohub,2012-10-27 16:55:00,
2012-10-27 12:56:00,61.3,30.4,30.17,SE,135,0.0,6.0,31,0.00,,,0.00,meteohub,2012-10-27 16:56:00,
2012-10-27 12:59:00,61.7,30.0,30.17,South,180,0.0,6.0,30,0.00,,,0.00,meteohub,2012-10-27 16:59:00,
2012-10-27 13:00:00,61.7,30.0,30.17,South,180,0.0,6.0,30,0.00,,,0.00,meteohub,2012-10-27 17:00:00,
2012-10-27 13:01:00,61.7,30.0,30.17,South,180,0.0,6.0,30,0.00,,,0.00,meteohub,2012-10-27 17:01:00,
2012-10-27 13:04:00,62.2,29.7,30.17,SE,135,0.0,6.0,29,0.00,,,0.00,meteohub,2012-10-27 17:04:00,
2012-10-27 13:05:00,62.2,29.7,30.17,SE,135,0.0,6.0,29,0.00,,,0.00,meteohub,2012-10-27 17:05:00,
2012-10-27 13:06:00,62.4,29.7,30.17,South,180,0.0,4.0,29,0.00,,,0.00,meteohub,2012-10-27 17:06:00,
2012-10-27 13:10:00,62.6,29.1,30.17,SE,135,0.0,4.0,28,0.00,,,0.00,meteohub,2012-10-27 17:10:00,
2012-10-27 13:11:00,62.6,29.1,30.17,South,180,0.0,4.0,28,0.00,,,0.00,meteohub,2012-10-27 17:11:00,
2012-10-27 13:15:00,62.1,28.6,30.16,East,90,0.0,4.0,28,0.00,,,0.00,meteohub,2012-10-27 17:15:00,
2012-10-27 13:16:00,61.9,28.4,30.17,East,90,0.0,4.0,28,0.00,,,0.00,meteohub,2012-10-27 17:16:00,
2012-10-27 13:17:00,61.9,28.4,30.16,SE,135,0.0,4.0,28,0.00,,,0.00,meteohub,2012-10-27 17:17:00,
2012-10-27 13:19:00,61.9,28.4,30.16,SE,135,0.0,4.0,28,0.00,,,0.00,meteohub,2012-10-27 17:19:00,
2012-10-27 13:20:00,61.9,28.4,30.16,SE,135,0.0,1.0,28,0.00,,,0.00,meteohub,2012-10-27 17:20:00,
2012-10-27 13:21:00,61.7,29.1,30.16,South,180,0.0,1.0,29,0.00,,,0.00,meteohub,2012-10-27 17:21:00,
2012-10-27 13:22:00,61.7,29.1,30.16,South,180,0.0,1.0,29,0.00,,,0.00,meteohub,2012-10-27 17:22:00,
2012-10-27 13:24:00,61.7,29.1,30.17,South,180,0.0,1.0,29,0.00,,,0.00,meteohub,2012-10-27 17:24:00,
2012-10-27 13:25:00,61.9,29.3,30.16,WSW,248,0.0,3.0,29,0.00,,,0.00,meteohub,2012-10-27 17:25:00,
2012-10-27 13:26:00,61.9,28.4,30.16,East,90,1.0,3.0,28,0.00,,,0.00,meteohub,2012-10-27 17:26:00,
2012-10-27 13:29:00,61.9,28.4,30.16,WSW,248,8.0,8.0,28,0.00,,,0.00,meteohub,2012-10-27 17:29:00,
2012-10-27 13:30:00,61.7,29.1,30.16,WSW,248,4.0,4.0,29,0.00,,,0.00,meteohub,2012-10-27 17:30:00,
2012-10-27 13:31:00,61.9,29.3,30.16,SE,135,3.0,3.0,29,0.00,,,0.00,meteohub,2012-10-27 17:31:00,
2012-10-27 13:35:00,62.1,29.5,30.16,East,90,0.0,3.0,29,0.00,,,0.00,meteohub,2012-10-27 17:35:00,
2012-10-27 13:39:00,63.0,28.4,30.15,East,90,0.0,8.0,27,0.00,,,0.00,meteohub,2012-10-27 17:39:00,
2012-10-27 13:40:00,63.0,28.4,30.15,SE,135,0.0,8.0,27,0.00,,,0.00,meteohub,2012-10-27 17:40:00,
2012-10-27 13:41:00,63.1,27.7,30.15,SE,135,1.0,8.0,26,0.00,,,0.00,meteohub,2012-10-27 17:41:00,
2012-10-27 13:45:00,63.1,26.8,30.15,SE,135,0.0,8.0,25,0.00,,,0.00,meteohub,2012-10-27 17:45:00,
2012-10-27 13:46:00,63.1,26.8,30.15,SE,135,0.0,4.0,25,0.00,,,0.00,meteohub,2012-10-27 17:46:00,
2012-10-27 13:47:00,63.1,26.8,30.15,WSW,248,0.0,4.0,25,0.00,,,0.00,meteohub,2012-10-27 17:47:00,
2012-10-27 13:50:00,62.6,27.1,30.15,South,180,0.0,2.0,26,0.00,,,0.00,meteohub,2012-10-27 17:50:00,
2012-10-27 13:51:00,62.6,27.1,30.15,South,180,0.0,2.0,26,0.00,,,0.00,meteohub,2012-10-27 17:51:00,
2012-10-27 13:53:00,62.6,27.1,30.15,SE,135,0.0,2.0,26,0.00,,,0.00,meteohub,2012-10-27 17:53:00,
2012-10-27 13:56:00,62.4,27.1,30.15,South,180,0.0,2.0,26,0.00,,,0.00,meteohub,2012-10-27 17:56:00,
2012-10-27 13:58:00,62.4,27.1,30.15,SE,135,0.0,2.0,26,0.00,,,0.00,meteohub,2012-10-27 17:58:00,
2012-10-27 14:02:00,62.8,27.3,30.16,SE,135,0.0,8.0,26,0.00,,,0.00,meteohub,2012-10-27 18:02:00,
2012-10-27 14:03:00,62.8,27.3,30.15,South,180,0.0,8.0,26,0.00,,,0.00,meteohub,2012-10-27 18:03:00,
2012-10-27 14:05:00,62.6,26.2,30.15,SE,135,0.0,8.0,25,0.00,,,0.00,meteohub,2012-10-27 18:05:00,
2012-10-27 14:07:00,62.6,27.1,30.16,West,270,0.0,8.0,26,0.00,,,0.00,meteohub,2012-10-27 18:07:00,
2012-10-27 14:08:00,62.6,27.1,30.15,SSE,158,0.0,8.0,26,0.00,,,0.00,meteohub,2012-10-27 18:08:00,
2012-10-27 14:09:00,62.6,27.1,30.15,East,90,0.0,8.0,26,0.00,,,0.00,meteohub,2012-10-27 18:09:00,
2012-10-27 14:11:00,62.6,27.1,30.15,SE,135,0.0,0.0,26,0.00,,,0.00,meteohub,2012-10-27 18:11:00,
2012-10-27 14:13:00,62.8,27.3,30.14,West,270,0.0,0.0,26,0.00,,,0.00,meteohub,2012-10-27 18:13:00,
2012-10-27 14:14:00,63.0,26.6,30.14,West,270,4.0,0.0,25,0.00,,,0.00,meteohub,2012-10-27 18:14:00,
2012-10-27 14:16:00,62.8,26.4,30.14,WSW,248,0.0,0.0,25,0.00,,,0.00,meteohub,2012-10-27 18:16:00,
2012-10-27 14:18:00,62.8,27.3,30.14,WNW,293,0.0,0.0,26,0.00,,,0.00,meteohub,2012-10-27 18:18:00,
2012-10-27 14:19:00,63.0,26.6,30.14,SE,135,0.0,0.0,25,0.00,,,0.00,meteohub,2012-10-27 18:19:00,
2012-10-27 14:20:00,63.0,26.6,30.14,SE,135,0.0,4.0,25,0.00,,,0.00,meteohub,2012-10-27 18:20:00,
2012-10-27 14:23:00,63.0,25.5,30.14,South,180,0.0,4.0,24,0.00,,,0.00,meteohub,2012-10-27 18:23:00,
2012-10-27 14:25:00,62.8,26.4,30.14,SE,135,0.0,4.0,25,0.00,,,0.00,meteohub,2012-10-27 18:25:00,
2012-10-27 14:27:00,62.6,26.2,30.14,South,180,0.0,4.0,25,0.00,,,0.00,meteohub,2012-10-27 18:27:00,
2012-10-27 14:28:00,62.6,26.2,30.14,SE,135,0.0,4.0,25,0.00,,,0.00,meteohub,2012-10-27 18:28:00,
2012-10-27 14:30:00,62.6,26.2,30.14,South,180,5.0,5.0,25,0.00,,,0.00,meteohub,2012-10-27 18:30:00,
2012-10-27 14:33:00,62.6,26.2,30.14,SE,135,0.0,4.0,25,0.00,,,0.00,meteohub,2012-10-27 18:33:00,
2012-10-27 14:34:00,62.6,26.2,30.14,SE,135,0.0,4.0,25,0.00,,,0.00,meteohub,2012-10-27 18:34:00,
2012-10-27 14:36:00,62.8,25.5,30.14,WSW,248,0.0,5.0,24,0.00,,,0.00,meteohub,2012-10-27 18:36:00,
2012-10-27 14:37:00,62.8,25.5,30.14,SE,135,0.0,5.0,24,0.00,,,0.00,meteohub,2012-10-27 18:37:00,
2012-10-27 14:39:00,63.0,25.5,30.14,South,180,0.0,5.0,24,0.00,,,0.00,meteohub,2012-10-27 18:39:00,
2012-10-27 14:40:00,63.1,25.7,30.14,West,270,0.0,5.0,24,0.00,,,0.00,meteohub,2012-10-27 18:40:00,
2012-10-27 14:42:00,63.3,25.9,30.14,SE,135,0.0,5.0,24,0.00,,,0.00,meteohub,2012-10-27 18:42:00,
2012-10-27 14:45:00,63.5,25.0,30.14,East,90,0.0,5.0,23,0.00,,,0.00,meteohub,2012-10-27 18:45:00,
2012-10-27 14:46:00,63.5,25.0,30.14,East,90,0.0,5.0,23,0.00,,,0.00,meteohub,2012-10-27 18:46:00,
2012-10-27 14:47:00,63.5,23.9,30.14,South,180,0.0,5.0,22,0.00,,,0.00,meteohub,2012-10-27 18:47:00,
2012-10-27 14:48:00,63.5,23.9,30.14,SE,135,0.0,5.0,22,0.00,,,0.00,meteohub,2012-10-27 18:48:00,
2012-10-27 14:50:00,63.5,23.9,30.14,East,90,0.0,2.0,22,0.00,,,0.00,meteohub,2012-10-27 18:50:00,
2012-10-27 14:52:00,63.1,24.8,30.14,South,180,0.0,2.0,23,0.00,,,0.00,meteohub,2012-10-27 18:52:00,
2012-10-27 14:53:00,63.1,24.8,30.14,SE,135,0.0,2.0,23,0.00,,,0.00,meteohub,2012-10-27 18:53:00,
2012-10-27 14:56:00,63.1,23.7,30.14,South,180,0.0,2.0,22,0.00,,,0.00,meteohub,2012-10-27 18:56:00,
2012-10-27 14:58:00,63.0,23.5,30.14,East,90,0.0,2.0,22,0.00,,,0.00,meteohub,2012-10-27 18:58:00,
2012-10-27 14:59:00,63.0,23.5,30.14,East,90,0.0,2.0,22,0.00,,,0.00,meteohub,2012-10-27 18:59:00,
2012-10-27 15:01:00,63.0,24.6,30.14,SE,135,0.0,0.0,23,0.00,,,0.00,meteohub,2012-10-27 19:01:00,
2012-10-27 15:05:00,63.0,25.5,30.14,South,180,0.0,0.0,24,0.00,,,0.00,meteohub,2012-10-27 19:05:00,
2012-10-27 15:06:00,63.0,24.6,30.14,WSW,248,1.0,0.0,23,0.00,,,0.00,meteohub,2012-10-27 19:06:00,
2012-10-27 15:10:00,62.8,25.5,30.14,South,180,0.0,2.0,24,0.00,,,0.00,meteohub,2012-10-27 19:10:00,
2012-10-27 15:11:00,62.8,25.5,30.13,WSW,248,3.0,3.0,24,0.00,,,0.00,meteohub,2012-10-27 19:11:00,
2012-10-27 15:12:00,62.8,25.5,30.13,WSW,248,3.0,3.0,24,0.00,,,0.00,meteohub,2012-10-27 19:12:00,
2012-10-27 15:16:00,62.8,25.5,30.14,SE,135,0.0,3.0,24,0.00,,,0.00,meteohub,2012-10-27 19:16:00,
2012-10-27 15:17:00,63.0,25.5,30.14,South,180,0.0,3.0,24,0.00,,,0.00,meteohub,2012-10-27 19:17:00,
2012-10-27 15:21:00,63.3,24.8,30.13,South,180,0.0,3.0,23,0.00,,,0.00,meteohub,2012-10-27 19:21:00,
2012-10-27 15:22:00,63.3,24.8,30.13,South,180,0.0,3.0,23,0.00,,,0.00,meteohub,2012-10-27 19:22:00,
2012-10-27 15:23:00,63.3,23.9,30.13,SE,135,0.0,3.0,22,0.00,,,0.00,meteohub,2012-10-27 19:23:00,
2012-10-27 15:27:00,63.7,24.1,30.13,SE,135,0.0,3.0,22,0.00,,,0.00,meteohub,2012-10-27 19:27:00,
2012-10-27 15:28:00,63.7,24.1,30.13,SE,135,0.0,3.0,22,0.00,,,0.00,meteohub,2012-10-27 19:28:00,
2012-10-27 15:29:00,63.7,24.1,30.14,South,180,3.0,3.0,22,0.00,,,0.00,meteohub,2012-10-27 19:29:00,
2012-10-27 15:33:00,63.9,23.2,30.14,WSW,248,0.0,3.0,21,0.00,,,0.00,meteohub,2012-10-27 19:33:00,
2012-10-27 15:36:00,64.2,23.5,30.13,NE,45,0.0,3.0,21,0.00,,,0.00,meteohub,2012-10-27 19:36:00,
2012-10-27 15:38:00,63.9,21.9,30.14,NE,45,0.0,3.0,20,0.00,,,0.00,meteohub,2012-10-27 19:38:00,
2012-10-27 15:39:00,63.9,21.9,30.14,NE,45,0.0,3.0,20,0.00,,,0.00,meteohub,2012-10-27 19:39:00,
2012-10-27 15:40:00,63.9,21.9,30.14,East,90,0.0,3.0,20,0.00,,,0.00,meteohub,2012-10-27 19:40:00,
2012-10-27 15:42:00,63.3,22.6,30.13,NW,315,0.0,3.0,21,0.00,,,0.00,meteohub,2012-10-27 19:42:00,
2012-10-27 15:44:00,63.0,23.5,30.14,North,0,0.0,3.0,22,0.00,,,0.00,meteohub,2012-10-27 19:44:00,
2012-10-27 15:47:00,62.8,23.4,30.13,SE,135,0.0,1.0,22,0.00,,,0.00,meteohub,2012-10-27 19:47:00,
2012-10-27 15:49:00,62.6,24.3,30.14,SE,135,0.0,1.0,23,0.00,,,0.00,meteohub,2012-10-27 19:49:00,
2012-10-27 15:50:00,62.6,25.3,30.14,NE,45,0.0,1.0,24,0.00,,,0.00,meteohub,2012-10-27 19:50:00,
2012-10-27 15:52:00,62.4,25.2,30.14,SE,135,1.0,1.0,24,0.00,,,0.00,meteohub,2012-10-27 19:52:00,
2012-10-27 15:55:00,62.4,26.1,30.13,West,270,0.0,1.0,25,0.00,,,0.00,meteohub,2012-10-27 19:55:00,
2012-10-27 15:56:00,62.2,25.0,30.14,West,270,0.0,1.0,24,0.00,,,0.00,meteohub,2012-10-27 19:56:00,
2012-10-27 15:58:00,62.1,26.8,30.13,South,180,0.0,1.0,26,0.00,,,0.00,meteohub,2012-10-27 19:58:00,
2012-10-27 16:00:00,61.9,27.5,30.14,North,0,0.0,1.0,27,0.00,,,0.00,meteohub,2012-10-27 20:00:00,
2012-10-27 16:02:00,61.7,29.1,30.14,NE,45,3.0,3.0,29,0.00,,,0.00,meteohub,2012-10-27 20:02:00,
2012-10-27 16:03:00,61.5,29.8,30.14,NW,315,5.0,5.0,30,0.00,,,0.00,meteohub,2012-10-27 20:03:00,
2012-10-27 16:05:00,60.4,30.4,30.14,NW,315,5.0,5.0,32,0.00,,,0.00,meteohub,2012-10-27 20:05:00,
2012-10-27 16:06:00,60.4,30.4,30.14,NW,315,5.0,5.0,32,0.00,,,0.00,meteohub,2012-10-27 20:06:00,
2012-10-27 16:07:00,60.1,31.6,30.14,NW,315,4.0,5.0,34,0.00,,,0.00,meteohub,2012-10-27 20:07:00,
2012-10-27 16:08:00,60.1,31.6,30.14,NW,315,0.0,5.0,34,0.00,,,0.00,meteohub,2012-10-27 20:08:00,
2012-10-27 16:11:00,59.9,32.2,30.14,NW,315,2.0,7.0,35,0.00,,,0.00,meteohub,2012-10-27 20:11:00,
2012-10-27 16:12:00,59.7,32.7,30.14,NW,315,7.0,7.0,36,0.00,,,0.00,meteohub,2012-10-27 20:12:00,
2012-10-27 16:13:00,59.7,32.7,30.14,WSW,248,0.0,7.0,36,0.00,,,0.00,meteohub,2012-10-27 20:13:00,
2012-10-27 16:15:00,59.5,32.5,30.14,North,0,4.0,7.0,36,0.00,,,0.00,meteohub,2012-10-27 20:15:00,
2012-10-27 16:16:00,59.4,33.1,30.14,NW,315,0.0,7.0,37,0.00,,,0.00,meteohub,2012-10-27 20:16:00,
2012-10-27 16:18:00,59.0,32.7,30.14,WSW,248,0.0,7.0,37,0.00,,,0.00,meteohub,2012-10-27 20:18:00,
2012-10-27 16:19:00,59.0,32.7,30.14,North,0,0.0,7.0,37,0.00,,,0.00,meteohub,2012-10-27 20:19:00,
2012-10-27 16:20:00,59.0,33.4,30.14,South,180,2.0,7.0,38,0.00,,,0.00,meteohub,2012-10-27 20:20:00,
2012-10-27 16:22:00,59.0,33.4,30.14,WSW,248,0.0,7.0,38,0.00,,,0.00,meteohub,2012-10-27 20:22:00,
2012-10-27 16:25:00,58.5,32.9,30.14,WSW,248,0.0,7.0,38,0.00,,,0.00,meteohub,2012-10-27 20:25:00,
2012-10-27 16:26:00,58.5,32.9,30.14,NW,315,8.0,8.0,38,0.00,,,0.00,meteohub,2012-10-27 20:26:00,
2012-10-27 16:27:00,58.3,32.7,30.14,NW,315,4.0,7.0,38,0.00,,,0.00,meteohub,2012-10-27 20:27:00,
2012-10-27 16:30:00,57.7,32.9,30.14,WSW,248,0.0,7.0,39,0.00,,,0.00,meteohub,2012-10-27 20:30:00,
2012-10-27 16:31:00,57.6,33.4,30.14,West,270,3.0,8.0,40,0.00,,,0.00,meteohub,2012-10-27 20:31:00,
2012-10-27 16:32:00,57.2,33.1,30.14,NE,45,9.0,9.0,40,0.00,,,0.00,meteohub,2012-10-27 20:32:00,
2012-10-27 16:35:00,57.0,33.6,30.14,NW,315,4.0,8.0,41,0.00,,,0.00,meteohub,2012-10-27 20:35:00,
2012-10-27 16:37:00,56.8,33.4,30.14,NW,315,0.0,9.0,41,0.00,,,0.00,meteohub,2012-10-27 20:37:00,
2012-10-27 16:38:00,56.7,33.3,30.14,NW,315,0.0,9.0,41,0.00,,,0.00,meteohub,2012-10-27 20:38:00,
2012-10-27 16:41:00,56.3,33.4,30.14,West,270,6.0,9.0,42,0.00,,,0.00,meteohub,2012-10-27 20:41:00,
2012-10-27 16:42:00,56.1,33.3,30.15,NW,315,5.0,9.0,42,0.00,,,0.00,meteohub,2012-10-27 20:42:00,
2012-10-27 16:43:00,55.9,33.3,30.14,West,270,4.0,9.0,42,0.00,,,0.00,meteohub,2012-10-27 20:43:00,
2012-10-27 16:44:00,55.6,32.9,30.14,NW,315,0.0,9.0,42,0.00,,,0.00,meteohub,2012-10-27 20:44:00,
2012-10-27 16:46:00,55.4,33.8,30.14,WSW,248,4.0,9.0,44,0.00,,,0.00,meteohub,2012-10-27 20:46:00,
2012-10-27 16:47:00,55.4,33.8,30.14,WSW,248,4.0,9.0,44,0.00,,,0.00,meteohub,2012-10-27 20:47:00,
2012-10-27 16:49:00,55.2,34.2,30.15,NW,315,7.0,9.0,45,0.00,,,0.00,meteohub,2012-10-27 20:49:00,
2012-10-27 16:51:00,54.9,34.0,30.14,NW,315,0.0,7.0,45,0.00,,,0.00,meteohub,2012-10-27 20:51:00,
2012-10-27 16:53:00,54.3,34.0,30.14,West,270,10.0,10.0,46,0.00,,,0.00,meteohub,2012-10-27 20:53:00,
2012-10-27 16:54:00,54.1,34.3,30.15,West,270,3.0,7.0,47,0.00,,,0.00,meteohub,2012-10-27 20:54:00,
2012-10-27 16:56:00,54.0,34.7,30.14,West,270,2.0,8.0,48,0.00,,,0.00,meteohub,2012-10-27 20:56:00,
2012-10-27 16:57:00,54.0,34.7,30.14,North,0,7.0,8.0,48,0.00,,,0.00,meteohub,2012-10-27 20:57:00,
2012-10-27 16:58:00,53.8,35.1,30.15,WSW,248,5.0,8.0,49,0.00,,,0.00,meteohub,2012-10-27 20:58:00,
2012-10-27 16:59:00,53.6,34.9,30.15,North,0,3.0,8.0,49,0.00,,,0.00,meteohub,2012-10-27 20:59:00,
2012-10-27 17:01:00,53.6,34.9,30.14,North,0,8.0,10.0,49,0.00,,,0.00,meteohub,2012-10-27 21:01:00,
2012-10-27 17:02:00,53.6,34.9,30.14,North,0,8.0,10.0,49,0.00,,,0.00,meteohub,2012-10-27 21:02:00,
2012-10-27 17:04:00,53.2,35.1,30.14,NW,315,2.0,10.0,50,0.00,,,0.00,meteohub,2012-10-27 21:04:00,
2012-10-27 17:05:00,53.2,35.1,30.14,NW,315,0.0,10.0,50,0.00,,,0.00,meteohub,2012-10-27 21:05:00,
2012-10-27 17:07:00,53.2,35.6,30.14,NW,315,5.0,10.0,51,0.00,,,0.00,meteohub,2012-10-27 21:07:00,
2012-10-27 17:09:00,53.1,35.4,30.15,West,270,8.0,10.0,51,0.00,,,0.00,meteohub,2012-10-27 21:09:00,
2012-10-27 17:10:00,53.1,35.4,30.15,West,270,8.0,10.0,51,0.00,,,0.00,meteohub,2012-10-27 21:10:00,
2012-10-27 17:12:00,52.7,35.1,30.15,North,0,0.0,9.0,51,0.00,,,0.00,meteohub,2012-10-27 21:12:00,
2012-10-27 17:14:00,52.7,35.6,30.15,NW,315,0.0,9.0,52,0.00,,,0.00,meteohub,2012-10-27 21:14:00,
2012-10-27 17:16:00,52.7,35.6,30.14,West,270,0.0,8.0,52,0.00,,,0.00,meteohub,2012-10-27 21:16:00,
2012-10-27 17:18:00,52.7,36.0,30.15,NW,315,5.0,8.0,53,0.00,,,0.00,meteohub,2012-10-27 21:18:00,
2012-10-27 17:20:00,52.5,36.0,30.15,NW,315,0.0,8.0,53,0.00,,,0.00,meteohub,2012-10-27 21:20:00,
2012-10-27 17:21:00,52.5,36.0,30.15,North,0,0.0,8.0,53,0.00,,,0.00,meteohub,2012-10-27 21:21:00,
2012-10-27 17:23:00,52.3,35.2,30.15,West,270,1.0,8.0,52,0.00,,,0.00,meteohub,2012-10-27 21:23:00,
2012-10-27 17:25:00,52.2,35.6,30.15,North,0,2.0,8.0,53,0.00,,,0.00,meteohub,2012-10-27 21:25:00,
2012-10-27 17:29:00,52.0,35.8,30.15,SE,135,6.0,6.0,54,0.00,,,0.00,meteohub,2012-10-27 21:29:00,
2012-10-27 17:30:00,51.8,35.6,30.15,North,0,0.0,5.0,54,0.00,,,0.00,meteohub,2012-10-27 21:30:00,
2012-10-27 17:31:00,51.8,35.6,30.15,North,0,0.0,6.0,54,0.00,,,0.00,meteohub,2012-10-27 21:31:00,
2012-10-27 17:34:00,51.4,35.8,30.16,NW,315,9.0,9.0,55,0.00,,,0.00,meteohub,2012-10-27 21:34:00,
2012-10-27 17:36:00,51.4,36.3,30.16,NE,45,0.0,9.0,56,0.00,,,0.00,meteohub,2012-10-27 21:36:00,
2012-10-27 17:37:00,51.3,36.1,30.16,West,270,0.0,9.0,56,0.00,,,0.00,meteohub,2012-10-27 21:37:00,
2012-10-27 17:40:00,51.3,36.5,30.16,North,0,0.0,9.0,57,0.00,,,0.00,meteohub,2012-10-27 21:40:00,
2012-10-27 17:41:00,51.3,36.5,30.16,NW,315,0.0,9.0,57,0.00,,,0.00,meteohub,2012-10-27 21:41:00,
2012-10-27 17:43:00,51.1,36.3,30.16,West,270,4.0,9.0,57,0.00,,,0.00,meteohub,2012-10-27 21:43:00,
2012-10-27 17:45:00,51.1,36.3,30.16,NW,315,0.0,9.0,57,0.00,,,0.00,meteohub,2012-10-27 21:45:00,
2012-10-27 17:48:00,50.9,36.1,30.16,NW,315,0.0,9.0,57,0.00,,,0.00,meteohub,2012-10-27 21:48:00,
2012-10-27 17:51:00,50.7,36.5,30.16,East,90,0.0,8.0,58,0.00,,,0.00,meteohub,2012-10-27 21:51:00,
2012-10-27 17:54:00,50.5,36.3,30.16,West,270,0.0,8.0,58,0.00,,,0.00,meteohub,2012-10-27 21:54:00,
2012-10-27 17:55:00,50.5,36.3,30.16,West,270,0.0,8.0,58,0.00,,,0.00,meteohub,2012-10-27 21:55:00,
2012-10-27 17:56:00,50.5,36.7,30.16,WSW,248,0.0,4.0,59,0.00,,,0.00,meteohub,2012-10-27 21:56:00,
2012-10-27 17:59:00,50.5,36.7,30.16,NW,315,0.0,4.0,59,0.00,,,0.00,meteohub,2012-10-27 21:59:00,
2012-10-27 18:00:00,50.4,36.5,30.16,West,270,0.0,4.0,59,0.00,,,0.00,meteohub,2012-10-27 22:00:00,
2012-10-27 18:02:00,50.4,36.5,30.16,NW,315,0.0,4.0,59,0.00,,,0.00,meteohub,2012-10-27 22:02:00,
2012-10-27 18:04:00,50.2,36.9,30.16,NW,315,1.0,4.0,60,0.00,,,0.00,meteohub,2012-10-27 22:04:00,
2012-10-27 18:05:00,50.2,36.9,30.16,NW,315,4.0,4.0,60,0.00,,,0.00,meteohub,2012-10-27 22:05:00,
2012-10-27 18:07:00,50.2,36.9,30.16,North,0,2.0,4.0,60,0.00,,,0.00,meteohub,2012-10-27 22:07:00,
2012-10-27 18:09:00,50.0,37.0,30.17,WSW,248,0.0,4.0,61,0.00,,,0.00,meteohub,2012-10-27 22:09:00,
2012-10-27 18:10:00,50.0,37.0,30.17,North,0,4.0,6.0,61,0.00,,,0.00,meteohub,2012-10-27 22:10:00,
2012-10-27 18:12:00,50.0,37.0,30.17,NW,315,3.0,6.0,61,0.00,,,0.00,meteohub,2012-10-27 22:12:00,
2012-10-27 18:13:00,50.0,37.0,30.17,West,270,4.0,6.0,61,0.00,,,0.00,meteohub,2012-10-27 22:13:00,
2012-10-27 18:16:00,50.0,37.0,30.17,NW,315,0.0,7.0,61,0.00,,,0.00,meteohub,2012-10-27 22:16:00,
2012-10-27 18:17:00,49.8,36.9,30.17,West,270,4.0,7.0,61,0.00,,,0.00,meteohub,2012-10-27 22:17:00,
2012-10-27 18:18:00,49.8,37.4,30.17,WNW,293,2.0,7.0,62,0.00,,,0.00,meteohub,2012-10-27 22:18:00,
2012-10-27 18:21:00,49.6,37.2,30.17,NW,315,5.0,7.0,62,0.00,,,0.00,meteohub,2012-10-27 22:21:00,
2012-10-27 18:22:00,49.6,37.2,30.17,NW,315,3.0,7.0,62,0.00,,,0.00,meteohub,2012-10-27 22:22:00,
2012-10-27 18:24:00,49.5,37.0,30.17,NW,315,7.0,7.0,62,0.00,,,0.00,meteohub,2012-10-27 22:24:00,
2012-10-27 18:26:00,49.3,36.9,30.18,West,270,3.0,7.0,62,0.00,,,0.00,meteohub,2012-10-27 22:26:00,
2012-10-27 18:27:00,49.3,37.2,30.17,West,270,2.0,7.0,63,0.00,,,0.00,meteohub,2012-10-27 22:27:00,
2012-10-27 18:28:00,49.3,37.2,30.17,West,270,2.0,7.0,63,0.00,,,0.00,meteohub,2012-10-27 22:28:00,
2012-10-27 18:29:00,49.3,37.2,30.18,NW,315,6.0,7.0,63,0.00,,,0.00,meteohub,2012-10-27 22:29:00,
2012-10-27 18:31:00,49.1,37.0,30.18,SE,135,5.0,7.0,63,0.00,,,0.00,meteohub,2012-10-27 22:31:00,
2012-10-27 18:33:00,49.1,37.4,30.18,NW,315,7.0,7.0,64,0.00,,,0.00,meteohub,2012-10-27 22:33:00,
2012-10-27 18:34:00,48.9,37.2,30.18,North,0,0.0,7.0,64,0.00,,,0.00,meteohub,2012-10-27 22:34:00,
2012-10-27 18:37:00,48.9,37.8,30.18,North,0,6.0,7.0,65,0.00,,,0.00,meteohub,2012-10-27 22:37:00,
2012-10-27 18:38:00,48.9,37.8,30.18,NW,315,5.0,7.0,65,0.00,,,0.00,meteohub,2012-10-27 22:38:00,
2012-10-27 18:39:00,48.9,37.8,30.18,NW,315,4.0,7.0,65,0.00,,,0.00,meteohub,2012-10-27 22:39:00,
2012-10-27 18:42:00,48.7,37.9,30.17,East,90,0.0,7.0,66,0.00,,,0.00,meteohub,2012-10-27 22:42:00,
2012-10-27 18:43:00,48.6,38.1,30.18,East,90,0.0,7.0,67,0.00,,,0.00,meteohub,2012-10-27 22:43:00,
2012-10-27 18:44:00,48.6,38.1,30.17,NW,315,5.0,7.0,67,0.00,,,0.00,meteohub,2012-10-27 22:44:00,
2012-10-27 18:45:00,48.6,38.1,30.18,NW,315,4.0,7.0,67,0.00,,,0.00,meteohub,2012-10-27 22:45:00,
2012-10-27 18:48:00,48.6,38.5,30.18,West,270,5.0,8.0,68,0.00,,,0.00,meteohub,2012-10-27 22:48:00,
2012-10-27 18:49:00,48.6,38.5,30.18,NW,315,4.0,8.0,68,0.00,,,0.00,meteohub,2012-10-27 22:49:00,
2012-10-27 18:50:00,48.6,38.5,30.18,NW,315,7.0,8.0,68,0.00,,,0.00,meteohub,2012-10-27 22:50:00,
2012-10-27 18:53:00,48.4,38.7,30.18,North,0,5.0,8.0,69,0.00,,,0.00,meteohub,2012-10-27 22:53:00,
2012-10-27 18:54:00,48.4,38.7,30.18,NE,45,3.0,8.0,69,0.00,,,0.00,meteohub,2012-10-27 22:54:00,
2012-10-27 18:55:00,48.4,38.7,30.18,West,270,6.0,8.0,69,0.00,,,0.00,meteohub,2012-10-27 22:55:00,
2012-10-27 18:58:00,48.4,39.0,30.18,NW,315,3.0,8.0,70,0.00,,,0.00,meteohub,2012-10-27 22:58:00,
2012-10-27 18:59:00,48.4,39.0,30.18,NW,315,2.0,8.0,70,0.00,,,0.00,meteohub,2012-10-27 22:59:00,
2012-10-27 19:00:00,48.4,39.0,30.18,NW,315,2.0,8.0,70,0.00,,,0.00,meteohub,2012-10-27 23:00:00,
2012-10-27 19:01:00,48.2,38.8,30.18,North,0,8.0,8.0,70,0.00,,,0.00,meteohub,2012-10-27 23:01:00,
2012-10-27 19:03:00,48.2,39.2,30.18,NE,45,3.0,7.0,71,0.00,,,0.00,meteohub,2012-10-27 23:03:00,
2012-10-27 19:05:00,48.2,39.2,30.18,NW,315,6.0,7.0,71,0.00,,,0.00,meteohub,2012-10-27 23:05:00,
2012-10-27 19:07:00,48.0,39.0,30.18,North,0,7.0,8.0,71,0.00,,,0.00,meteohub,2012-10-27 23:07:00,
2012-10-27 19:09:00,48.0,39.0,30.18,NW,315,6.0,8.0,71,0.00,,,0.00,meteohub,2012-10-27 23:09:00,
2012-10-27 19:10:00,48.0,39.0,30.18,North,0,5.0,8.0,71,0.00,,,0.00,meteohub,2012-10-27 23:10:00,
2012-10-27 19:12:00,47.8,39.2,30.18,NW,315,4.0,8.0,72,0.00,,,0.00,meteohub,2012-10-27 23:12:00,
2012-10-27 19:14:00,47.8,39.2,30.18,North,0,8.0,8.0,72,0.00,,,0.00,meteohub,2012-10-27 23:14:00,
2012-10-27 19:16:00,47.8,39.2,30.19,North,0,8.0,8.0,72,0.00,,,0.00,meteohub,2012-10-27 23:16:00,
2012-10-27 19:17:00,47.8,39.6,30.18,NE,45,4.0,8.0,73,0.00,,,0.00,meteohub,2012-10-27 23:17:00,
2012-10-27 19:19:00,47.8,39.6,30.18,West,270,3.0,8.0,73,0.00,,,0.00,meteohub,2012-10-27 23:19:00,
2012-10-27 19:21:00,47.7,39.4,30.18,North,0,4.0,8.0,73,0.00,,,0.00,meteohub,2012-10-27 23:21:00,
2012-10-27 19:22:00,47.7,39.4,30.18,NW,315,4.0,8.0,73,0.00,,,0.00,meteohub,2012-10-27 23:22:00,
2012-10-27 19:26:00,47.5,39.2,30.18,NE,45,4.0,8.0,73,0.00,,,0.00,meteohub,2012-10-27 23:26:00,
2012-10-27 19:28:00,47.5,39.2,30.19,North,0,3.0,8.0,73,0.00,,,0.00,meteohub,2012-10-27 23:28:00,
2012-10-27 19:31:00,47.5,39.6,30.19,NW,315,4.0,8.0,74,0.00,,,0.00,meteohub,2012-10-27 23:31:00,
2012-10-27 19:32:00,47.5,39.6,30.19,NW,315,4.0,8.0,74,0.00,,,0.00,meteohub,2012-10-27 23:32:00,
2012-10-27 19:33:00,47.5,39.6,30.19,North,0,4.0,8.0,74,0.00,,,0.00,meteohub,2012-10-27 23:33:00,
2012-10-27 19:34:00,47.3,39.7,30.18,NW,315,5.0,8.0,75,0.00,,,0.00,meteohub,2012-10-27 23:34:00,
2012-10-27 19:36:00,47.3,39.7,30.18,NW,315,4.0,7.0,75,0.00,,,0.00,meteohub,2012-10-27 23:36:00,
2012-10-27 19:37:00,47.3,39.7,30.18,NW,315,4.0,7.0,75,0.00,,,0.00,meteohub,2012-10-27 23:37:00,
2012-10-27 19:39:00,47.3,39.7,30.19,NW,315,3.0,7.0,75,0.00,,,0.00,meteohub,2012-10-27 23:39:00,
2012-10-27 19:42:00,47.1,39.9,30.18,NW,315,4.0,8.0,76,0.00,,,0.00,meteohub,2012-10-27 23:42:00,
2012-10-27 19:44:00,47.1,39.9,30.18,North,0,4.0,8.0,76,0.00,,,0.00,meteohub,2012-10-27 23:44:00,
2012-10-27 19:46:00,46.9,39.7,30.18,NW,315,2.0,8.0,76,0.00,,,0.00,meteohub,2012-10-27 23:46:00,
2012-10-27 19:47:00,47.1,39.9,30.18,West,270,3.0,8.0,76,0.00,,,0.00,meteohub,2012-10-27 23:47:00,
2012-10-27 19:49:00,46.9,39.7,30.19,NW,315,6.0,8.0,76,0.00,,,0.00,meteohub,2012-10-27 23:49:00,
2012-10-27 19:52:00,46.9,40.1,30.18,NW,315,2.0,8.0,77,0.00,,,0.00,meteohub,2012-10-27 23:52:00,
2012-10-27 19:55:00,46.9,40.1,30.18,North,0,4.0,8.0,77,0.00,,,0.00,meteohub,2012-10-27 23:55:00,
2012-10-27 19:57:00,46.9,40.1,30.18,North,0,3.0,7.0,77,0.00,,,0.00,meteohub,2012-10-27 23:57:00,
2012-10-27 19:58:00,46.9,40.5,30.18,North,0,2.0,7.0,78,0.00,,,0.00,meteohub,2012-10-27 23:58:00,
2012-10-27 20:00:00,46.9,40.5,30.18,NW,315,2.0,7.0,78,0.00,,,0.00,meteohub,2012-10-28 00:00:00,
2012-10-27 20:02:00,46.9,40.5,30.18,NW,315,4.0,6.0,78,0.00,,,0.00,meteohub,2012-10-28 00:02:00,
2012-10-27 20:03:00,46.9,40.5,30.18,North,0,2.0,6.0,78,0.00,,,0.00,meteohub,2012-10-28 00:03:00,
2012-10-27 20:04:00,46.8,40.3,30.18,NW,315,3.0,6.0,78,0.00,,,0.00,meteohub,2012-10-28 00:04:00,
2012-10-27 20:05:00,46.9,40.5,30.18,NW,315,1.0,4.0,78,0.00,,,0.00,meteohub,2012-10-28 00:05:00,
2012-10-27 20:07:00,46.9,40.5,30.18,NW,315,5.0,5.0,78,0.00,,,0.00,meteohub,2012-10-28 00:07:00,
2012-10-27 20:09:00,46.9,40.8,30.18,North,0,2.0,4.0,79,0.00,,,0.00,meteohub,2012-10-28 00:09:00,
2012-10-27 20:10:00,46.8,40.3,30.18,North,0,2.0,4.0,78,0.00,,,0.00,meteohub,2012-10-28 00:10:00,
2012-10-27 20:13:00,46.8,40.6,30.18,WNW,293,4.0,5.0,79,0.00,,,0.00,meteohub,2012-10-28 00:13:00,
2012-10-27 20:14:00,46.8,40.6,30.18,North,0,4.0,5.0,79,0.00,,,0.00,meteohub,2012-10-28 00:14:00,
2012-10-27 20:15:00,46.8,40.6,30.18,North,0,4.0,6.0,79,0.00,,,0.00,meteohub,2012-10-28 00:15:00,
2012-10-27 20:18:00,46.8,40.6,30.18,North,0,4.0,6.0,79,0.00,,,0.00,meteohub,2012-10-28 00:18:00,
2012-10-27 20:19:00,46.8,40.6,30.18,NW,315,2.0,6.0,79,0.00,,,0.00,meteohub,2012-10-28 00:19:00,
2012-10-27 20:21:00,46.8,41.0,30.18,East,90,2.0,6.0,80,0.00,,,0.00,meteohub,2012-10-28 00:21:00,
2012-10-27 20:23:00,46.8,41.0,30.18,NW,315,4.0,6.0,80,0.00,,,0.00,meteohub,2012-10-28 00:23:00,
2012-10-27 20:24:00,46.8,41.0,30.18,NW,315,4.0,6.0,80,0.00,,,0.00,meteohub,2012-10-28 00:24:00,
2012-10-27 20:25:00,46.8,41.0,30.18,West,270,2.0,6.0,80,0.00,,,0.00,meteohub,2012-10-28 00:25:00,
2012-10-27 20:26:00,46.8,41.0,30.18,North,0,3.0,6.0,80,0.00,,,0.00,meteohub,2012-10-28 00:26:00,
2012-10-27 20:29:00,46.6,40.8,30.18,NW,315,6.0,6.0,80,0.00,,,0.00,meteohub,2012-10-28 00:29:00,
2012-10-27 20:30:00,46.6,40.8,30.18,NW,315,3.0,6.0,80,0.00,,,0.00,meteohub,2012-10-28 00:30:00,
2012-10-27 20:31:00,46.6,40.8,30.18,NW,315,2.0,6.0,80,0.00,,,0.00,meteohub,2012-10-28 00:31:00,
2012-10-27 20:34:00,46.6,40.8,30.18,NE,45,6.0,6.0,80,0.00,,,0.00,meteohub,2012-10-28 00:34:00,
2012-10-27 20:35:00,46.6,40.8,30.18,NE,45,6.0,6.0,80,0.00,,,0.00,meteohub,2012-10-28 00:35:00,
2012-10-27 20:36:00,46.6,41.0,30.18,NW,315,2.0,6.0,81,0.00,,,0.00,meteohub,2012-10-28 00:36:00,
2012-10-27 20:40:00,46.6,41.0,30.18,NW,315,4.0,6.0,81,0.00,,,0.00,meteohub,2012-10-28 00:40:00,
2012-10-27 20:41:00,46.6,41.0,30.18,North,0,2.0,6.0,81,0.00,,,0.00,meteohub,2012-10-28 00:41:00,
2012-10-27 20:46:00,46.6,41.0,30.18,WSW,248,3.0,6.0,81,0.00,,,0.00,meteohub,2012-10-28 00:46:00,
2012-10-27 20:47:00,46.6,41.0,30.18,WSW,248,3.0,6.0,81,0.00,,,0.00,meteohub,2012-10-28 00:47:00,
2012-10-27 20:51:00,46.6,41.0,30.17,WSW,248,3.0,4.0,81,0.00,,,0.00,meteohub,2012-10-28 00:51:00,
2012-10-27 20:52:00,46.6,41.4,30.17,West,270,8.0,8.0,82,0.00,,,0.00,meteohub,2012-10-28 00:52:00,
2012-10-27 20:53:00,46.6,41.4,30.17,West,270,4.0,4.0,82,0.00,,,0.00,meteohub,2012-10-28 00:53:00,
2012-10-27 20:57:00,46.4,41.2,30.17,NW,315,2.0,8.0,82,0.00,,,0.00,meteohub,2012-10-28 00:57:00,
2012-10-27 20:58:00,46.4,41.2,30.17,WNW,293,2.0,8.0,82,0.00,,,0.00,meteohub,2012-10-28 00:58:00,
2012-10-27 21:02:00,46.6,41.4,30.17,WSW,248,2.0,8.0,82,0.00,,,0.00,meteohub,2012-10-28 01:02:00,
2012-10-27 21:03:00,46.6,41.4,30.17,WSW,248,2.0,8.0,82,0.00,,,0.00,meteohub,2012-10-28 01:03:00,
2012-10-27 21:04:00,46.6,41.4,30.17,WSW,248,2.0,8.0,82,0.00,,,0.00,meteohub,2012-10-28 01:04:00,
2012-10-27 21:07:00,46.6,41.4,30.17,SE,135,2.0,8.0,82,0.00,,,0.00,meteohub,2012-10-28 01:07:00,
2012-10-27 21:08:00,46.6,41.4,30.17,NE,45,2.0,8.0,82,0.00,,,0.00,meteohub,2012-10-28 01:08:00,
2012-10-27 21:09:00,46.6,41.7,30.17,North,0,4.0,8.0,83,0.00,,,0.00,meteohub,2012-10-28 01:09:00,
2012-10-27 21:13:00,46.6,41.7,30.17,West,270,4.0,4.0,83,0.00,,,0.00,meteohub,2012-10-28 01:13:00,
2012-10-27 21:14:00,46.6,41.7,30.17,North,0,2.0,4.0,83,0.00,,,0.00,meteohub,2012-10-28 01:14:00,
2012-10-27 21:16:00,46.6,41.7,30.17,NE,45,1.0,4.0,83,0.00,,,0.00,meteohub,2012-10-28 01:16:00,
2012-10-27 21:18:00,46.6,41.7,30.17,South,180,1.0,4.0,83,0.00,,,0.00,meteohub,2012-10-28 01:18:00,
2012-10-27 21:19:00,46.6,41.7,30.18,NW,315,2.0,4.0,83,0.00,,,0.00,meteohub,2012-10-28 01:19:00,
2012-10-27 21:21:00,46.6,41.7,30.17,NW,315,3.0,4.0,83,0.00,,,0.00,meteohub,2012-10-28 01:21:00,
2012-10-27 21:23:00,46.6,41.7,30.17,NW,315,2.0,4.0,83,0.00,,,0.00,meteohub,2012-10-28 01:23:00,
2012-10-27 21:24:00,46.6,41.7,30.18,NW,315,3.0,4.0,83,0.00,,,0.00,meteohub,2012-10-28 01:24:00,
2012-10-27 21:28:00,46.6,42.1,30.18,North,0,2.0,4.0,84,0.00,,,0.00,meteohub,2012-10-28 01:28:00,
2012-10-27 21:29:00,46.6,42.1,30.17,NW,315,2.0,4.0,84,0.00,,,0.00,meteohub,2012-10-28 01:29:00,
2012-10-27 21:30:00,46.6,42.1,30.17,North,0,2.0,4.0,84,0.00,,,0.00,meteohub,2012-10-28 01:30:00,
2012-10-27 21:34:00,46.6,42.1,30.18,NW,315,2.0,3.0,84,0.00,,,0.00,meteohub,2012-10-28 01:34:00,
2012-10-27 21:35:00,46.6,42.1,30.18,NW,315,3.0,3.0,84,0.00,,,0.00,meteohub,2012-10-28 01:35:00,
2012-10-27 21:36:00,46.6,42.1,30.18,North,0,2.0,3.0,84,0.00,,,0.00,meteohub,2012-10-28 01:36:00,
2012-10-27 21:39:00,46.6,42.1,30.18,NW,315,1.0,3.0,84,0.00,,,0.00,meteohub,2012-10-28 01:39:00,
2012-10-27 21:40:00,46.6,42.1,30.17,West,270,3.0,3.0,84,0.00,,,0.00,meteohub,2012-10-28 01:40:00,
2012-10-27 21:42:00,46.6,42.1,30.17,North,0,3.0,4.0,84,0.00,,,0.00,meteohub,2012-10-28 01:42:00,
2012-10-27 21:44:00,46.6,42.1,30.18,NW,315,1.0,4.0,84,0.00,,,0.00,meteohub,2012-10-28 01:44:00,
2012-10-27 21:45:00,46.6,42.1,30.17,NE,45,4.0,4.0,84,0.00,,,0.00,meteohub,2012-10-28 01:45:00,
2012-10-27 21:47:00,46.6,42.1,30.18,North,0,2.0,4.0,84,0.00,,,0.00,meteohub,2012-10-28 01:47:00,
2012-10-27 21:49:00,46.6,42.1,30.17,North,0,4.0,4.0,84,0.00,,,0.00,meteohub,2012-10-28 01:49:00,
2012-10-27 21:50:00,46.6,42.1,30.17,NW,315,4.0,4.0,84,0.00,,,0.00,meteohub,2012-10-28 01:50:00,
2012-10-27 21:51:00,46.6,42.1,30.17,NW,315,4.0,4.0,84,0.00,,,0.00,meteohub,2012-10-28 01:51:00,
2012-10-27 21:52:00,46.6,42.1,30.17,West,270,2.0,4.0,84,0.00,,,0.00,meteohub,2012-10-28 01:52:00,
2012-10-27 21:55:00,46.6,42.3,30.17,North,0,0.0,4.0,85,0.00,,,0.00,meteohub,2012-10-28 01:55:00,
2012-10-27 21:56:00,46.8,42.4,30.18,West,270,2.0,4.0,85,0.00,,,0.00,meteohub,2012-10-28 01:56:00,
2012-10-27 21:58:00,46.6,42.3,30.18,WSW,248,2.0,4.0,85,0.00,,,0.00,meteohub,2012-10-28 01:58:00,
2012-10-27 22:00:00,46.6,42.3,30.17,NE,45,2.0,4.0,85,0.00,,,0.00,meteohub,2012-10-28 02:00:00,
2012-10-27 22:01:00,46.6,42.3,30.17,NE,45,2.0,4.0,85,0.00,,,0.00,meteohub,2012-10-28 02:01:00,
2012-10-27 22:04:00,46.6,42.3,30.17,NE,45,2.0,4.0,85,0.00,,,0.00,meteohub,2012-10-28 02:04:00,
2012-10-27 22:05:00,46.6,42.3,30.17,NE,45,2.0,4.0,85,0.00,,,0.00,meteohub,2012-10-28 02:05:00,
2012-10-27 22:06:00,46.6,42.3,30.17,NE,45,2.0,4.0,85,0.00,,,0.00,meteohub,2012-10-28 02:06:00,
2012-10-27 22:09:00,46.6,42.3,30.17,NW,315,4.0,4.0,85,0.00,,,0.00,meteohub,2012-10-28 02:09:00,
2012-10-27 22:12:00,46.6,42.3,30.17,WSW,248,2.0,3.0,85,0.00,,,0.00,meteohub,2012-10-28 02:12:00,
2012-10-27 22:15:00,46.6,42.3,30.17,NE,45,4.0,4.0,85,0.00,,,0.00,meteohub,2012-10-28 02:15:00,
2012-10-27 22:17:00,46.6,42.3,30.17,North,0,1.0,4.0,85,0.00,,,0.00,meteohub,2012-10-28 02:17:00,
2012-10-27 22:18:00,46.6,42.3,30.17,WSW,248,2.0,4.0,85,0.00,,,0.00,meteohub,2012-10-28 02:18:00,
2012-10-27 22:21:00,46.6,42.3,30.17,North,0,3.0,4.0,85,0.00,,,0.00,meteohub,2012-10-28 02:21:00,
2012-10-27 22:23:00,46.6,42.6,30.17,NW,315,2.0,4.0,86,0.00,,,0.00,meteohub,2012-10-28 02:23:00,
2012-10-27 22:24:00,46.6,42.6,30.17,NW,315,2.0,4.0,86,0.00,,,0.00,meteohub,2012-10-28 02:24:00,
2012-10-27 22:25:00,46.6,42.6,30.17,NW,315,2.0,4.0,86,0.00,,,0.00,meteohub,2012-10-28 02:25:00,
2012-10-27 22:27:00,46.6,42.6,30.17,West,270,2.0,4.0,86,0.00,,,0.00,meteohub,2012-10-28 02:27:00,
2012-10-27 22:29:00,46.6,42.6,30.17,North,0,2.0,4.0,86,0.00,,,0.00,meteohub,2012-10-28 02:29:00,
2012-10-27 22:30:00,46.6,42.6,30.17,NW,315,2.0,4.0,86,0.00,,,0.00,meteohub,2012-10-28 02:30:00,
2012-10-27 22:32:00,46.6,42.6,30.17,NW,315,3.0,4.0,86,0.00,,,0.00,meteohub,2012-10-28 02:32:00,
2012-10-27 22:34:00,46.6,42.6,30.17,North,0,1.0,4.0,86,0.00,,,0.00,meteohub,2012-10-28 02:34:00,
2012-10-27 22:35:00,46.6,42.6,30.17,North,0,1.0,4.0,86,0.00,,,0.00,meteohub,2012-10-28 02:35:00,
2012-10-27 22:38:00,46.6,42.6,30.17,East,90,2.0,4.0,86,0.00,,,0.00,meteohub,2012-10-28 02:38:00,
2012-10-27 22:39:00,46.6,42.6,30.17,NW,315,2.0,4.0,86,0.00,,,0.00,meteohub,2012-10-28 02:39:00,
2012-10-27 22:40:00,46.6,42.6,30.17,NW,315,2.0,4.0,86,0.00,,,0.00,meteohub,2012-10-28 02:40:00,
2012-10-27 22:44:00,46.6,42.6,30.18,NW,315,1.0,4.0,86,0.00,,,0.00,meteohub,2012-10-28 02:44:00,
2012-10-27 22:45:00,46.6,42.6,30.18,West,270,2.0,4.0,86,0.00,,,0.00,meteohub,2012-10-28 02:45:00,
2012-10-27 22:46:00,46.6,42.6,30.18,North,0,2.0,4.0,86,0.00,,,0.00,meteohub,2012-10-28 02:46:00,
2012-10-27 22:49:00,46.6,42.6,30.18,North,0,1.0,4.0,86,0.00,,,0.00,meteohub,2012-10-28 02:49:00,
2012-10-27 22:50:00,46.6,42.6,30.18,North,0,1.0,4.0,86,0.00,,,0.00,meteohub,2012-10-28 02:50:00,
2012-10-27 22:52:00,46.6,42.6,30.18,NW,315,2.0,4.0,86,0.00,,,0.00,meteohub,2012-10-28 02:52:00,
2012-10-27 22:55:00,46.6,42.6,30.17,North,0,0.0,4.0,86,0.00,,,0.00,meteohub,2012-10-28 02:55:00,
2012-10-27 22:57:00,46.6,42.6,30.17,NW,315,4.0,4.0,86,0.00,,,0.00,meteohub,2012-10-28 02:57:00,
2012-10-27 23:00:00,46.6,42.6,30.17,North,0,1.0,4.0,86,0.00,,,0.00,meteohub,2012-10-28 03:00:00,
2012-10-27 23:03:00,46.6,42.6,30.17,North,0,1.0,4.0,86,0.00,,,0.00,meteohub,2012-10-28 03:03:00,
2012-10-27 23:04:00,46.6,42.6,30.17,North,0,1.0,4.0,86,0.00,,,0.00,meteohub,2012-10-28 03:04:00,
2012-10-27 23:05:00,46.6,42.6,30.17,North,0,1.0,4.0,86,0.00,,,0.00,meteohub,2012-10-28 03:05:00,
2012-10-27 23:09:00,46.6,43.0,30.17,North,0,0.0,4.0,87,0.00,,,0.00,meteohub,2012-10-28 03:09:00,
2012-10-27 23:10:00,46.6,43.0,30.17,NW,315,1.0,4.0,87,0.00,,,0.00,meteohub,2012-10-28 03:10:00,
2012-10-27 23:11:00,46.6,43.0,30.16,North,0,2.0,4.0,87,0.00,,,0.00,meteohub,2012-10-28 03:11:00,
2012-10-27 23:16:00,46.6,43.0,30.17,NW,315,0.0,4.0,87,0.00,,,0.00,meteohub,2012-10-28 03:16:00,
2012-10-27 23:21:00,46.4,42.8,30.17,North,0,4.0,4.0,87,0.00,,,0.00,meteohub,2012-10-28 03:21:00,
2012-10-27 23:22:00,46.4,42.8,30.17,North,0,3.0,4.0,87,0.00,,,0.00,meteohub,2012-10-28 03:22:00,
2012-10-27 23:26:00,46.4,42.8,30.17,NW,315,4.0,4.0,87,0.00,,,0.00,meteohub,2012-10-28 03:26:00,
2012-10-27 23:27:00,46.4,42.8,30.17,NW,315,4.0,4.0,87,0.00,,,0.00,meteohub,2012-10-28 03:27:00,
2012-10-27 23:32:00,46.4,42.8,30.17,NW,315,0.0,4.0,87,0.00,,,0.00,meteohub,2012-10-28 03:32:00,
2012-10-27 23:33:00,46.4,42.8,30.17,North,0,0.0,4.0,87,0.00,,,0.00,meteohub,2012-10-28 03:33:00,
2012-10-27 23:37:00,46.4,42.8,30.17,NW,315,0.0,4.0,87,0.00,,,0.00,meteohub,2012-10-28 03:37:00,
2012-10-27 23:39:00,46.4,42.8,30.17,North,0,0.0,4.0,87,0.00,,,0.00,meteohub,2012-10-28 03:39:00,
2012-10-27 23:42:00,46.4,42.8,30.17,North,0,1.0,4.0,87,0.00,,,0.00,meteohub,2012-10-28 03:42:00,
2012-10-27 23:43:00,46.4,42.8,30.17,North,0,1.0,4.0,87,0.00,,,0.00,meteohub,2012-10-28 03:43:00,
2012-10-27 23:44:00,46.4,42.8,30.17,NE,45,0.0,4.0,87,0.00,,,0.00,meteohub,2012-10-28 03:44:00,
2012-10-27 23:45:00,46.4,42.8,30.17,WNW,293,2.0,4.0,87,0.00,,,0.00,meteohub,2012-10-28 03:45:00,
2012-10-27 23:47:00,46.4,42.8,30.17,North,0,5.0,5.0,87,0.00,,,0.00,meteohub,2012-10-28 03:47:00,
2012-10-27 23:49:00,46.4,42.8,30.17,NW,315,1.0,4.0,87,0.00,,,0.00,meteohub,2012-10-28 03:49:00,
2012-10-27 23:50:00,46.4,42.8,30.17,NW,315,2.0,4.0,87,0.00,,,0.00,meteohub,2012-10-28 03:50:00,
2012-10-27 23:51:00,46.2,42.6,30.17,North,0,3.0,4.0,87,0.00,,,0.00,meteohub,2012-10-28 03:51:00,
2012-10-27 23:52:00,46.4,42.8,30.17,NW,315,2.0,4.0,87,0.00,,,0.00,meteohub,2012-10-28 03:52:00,
2012-10-27 23:55:00,46.4,43.0,30.17,NW,315,0.0,5.0,88,0.00,,,0.00,meteohub,2012-10-28 03:55:00,
2012-10-27 23:57:00,46.4,43.0,30.17,North,0,0.0,5.0,88,0.00,,,0.00,meteohub,2012-10-28 03:57:00,
2012-10-27 23:58:00,46.4,43.0,30.18,North,0,2.0,5.0,88,0.00,,,0.00,meteohub,2012-10-28 03:58:00,